FDX1 KBFI-VHHH

Flight info

Callsign FDX1
Flight time 12h 48m
Altitude 36000
Route PERLL DCT ARRIE DCT VIBGA DCT SIMSU DCT METPA B453 KATCH B757 HMPTN/N0486F380 B757 CJAYY J123 ODK R341 PUGGY/N0489F400 R341 NATES/N0495F410 R220 NANAC/N0482F400 R220 IXE Y88 NAKTU Y12 KOHWA Y54 TURFY Y24 KOSHI Y50 IGMON A1 ELATO V522 ABBEY
Aircraft MD11/H-SDE1E2E3FGHIJ2J3J4J5M1RWXY/LB1D1

Departure

Time 2026-04-21 16:24
Airport King County International Airport - Boeing Field (KBFI)

Arrival

Time 2026-04-22 05:13
Airport Hong Kong International Airport (VHHH)
Time Latitude Longitude Altitude Speed Heading
2026-04-21 16:13 47.53500 -122.30292 35 ft 4 kts 72°
2026-04-21 16:13 47.53509 -122.30264 35 ft 0 kts 62°
2026-04-21 16:19 47.53509 -122.30266 34 ft 3 kts 62°
2026-04-21 16:19 47.53499 -122.30293 35 ft 3 kts 62°
2026-04-21 16:19 47.53489 -122.30319 35 ft 3 kts 62°
2026-04-21 16:19 47.53477 -122.30343 34 ft 3 kts 357°
2026-04-21 16:20 47.53463 -122.30335 32 ft 0 kts 330°
2026-04-21 16:21 47.53478 -122.30348 34 ft 5 kts 331°
2026-04-21 16:21 47.53530 -122.30391 35 ft 14 kts 331°
2026-04-21 16:21 47.53631 -122.30496 34 ft 19 kts 320°
2026-04-21 16:22 47.53712 -122.30576 35 ft 11 kts 331°
2026-04-21 16:22 47.53795 -122.30645 35 ft 16 kts 330°
2026-04-21 16:22 47.53909 -122.30744 35 ft 20 kts 329°
2026-04-21 16:22 47.54025 -122.30846 35 ft 15 kts 325°
2026-04-21 16:23 47.54083 -122.30918 34 ft 10 kts 320°
2026-04-21 16:23 47.54094 -122.31001 35 ft 11 kts 252°
2026-04-21 16:23 47.54055 -122.31097 32 ft 5 kts 211°
2026-04-21 16:23 47.53990 -122.31081 34 ft 16 kts 153°
2026-04-21 16:24 47.53653 -122.30801 33 ft 104 kts 150°
2026-04-21 16:24 47.52770 -122.30048 50 ft 181 kts 150°
2026-04-21 16:24 47.51648 -122.29073 928 ft 190 kts 149°
2026-04-21 16:24 47.50542 -122.28025 2369 ft 187 kts 153°
2026-04-21 16:25 47.49405 -122.27073 3801 ft 190 kts 152°
2026-04-21 16:25 47.48164 -122.26062 4583 ft 221 kts 152°
2026-04-21 16:25 47.46705 -122.24864 4698 ft 256 kts 151°
2026-04-21 16:25 47.45099 -122.23717 5203 ft 253 kts 166°
2026-04-21 16:26 47.43376 -122.23533 5831 ft 255 kts 181°
2026-04-21 16:26 47.41602 -122.24157 5984 ft 272 kts 207°
2026-04-21 16:26 47.40168 -122.25978 6367 ft 278 kts 233°
2026-04-21 16:26 47.39420 -122.28607 6753 ft 283 kts 260°
2026-04-21 16:27 47.39532 -122.31505 7118 ft 286 kts 287°
2026-04-21 16:27 47.40492 -122.34064 7598 ft 289 kts 311°
2026-04-21 16:27 47.41894 -122.36251 8501 ft 298 kts 316°
2026-04-21 16:27 47.43359 -122.38500 9513 ft 309 kts 313°
2026-04-21 16:28 47.44800 -122.40882 10291 ft 324 kts 311°
2026-04-21 16:28 47.46317 -122.43576 10402 ft 357 kts 308°
2026-04-21 16:28 47.47912 -122.46591 10568 ft 386 kts 307°
2026-04-21 16:28 47.49536 -122.49792 11335 ft 392 kts 306°
2026-04-21 16:29 47.50612 -122.51957 11874 ft 396 kts 305°
2026-04-21 16:29 47.52795 -122.56414 12952 ft 404 kts 304°
2026-04-21 16:29 47.54444 -122.59814 13705 ft 411 kts 303°
2026-04-21 16:29 47.56106 -122.63297 14164 ft 413 kts 301°
2026-04-21 16:30 47.57634 -122.66895 15001 ft 415 kts 298°
2026-04-21 16:30 47.59088 -122.70608 15700 ft 420 kts 296°
2026-04-21 16:30 47.60501 -122.74349 16387 ft 422 kts 296°
2026-04-21 16:30 47.61929 -122.78171 17092 ft 425 kts 296°
2026-04-21 16:31 47.63368 -122.82015 17768 ft 428 kts 296°
2026-04-21 16:31 47.64819 -122.85877 18406 ft 430 kts 296°
2026-04-21 16:31 47.66284 -122.89764 18958 ft 433 kts 296°
2026-04-21 16:31 47.67761 -122.93677 19500 ft 436 kts 296°
2026-04-21 16:32 47.69252 -122.97627 20043 ft 440 kts 296°
2026-04-21 16:32 47.70750 -123.01599 20547 ft 442 kts 296°
2026-04-21 16:32 47.72253 -123.05587 21108 ft 443 kts 296°
2026-04-21 16:32 47.73748 -123.09560 21525 ft 448 kts 296°
2026-04-21 16:33 47.75273 -123.13620 22115 ft 452 kts 296°
2026-04-21 16:33 47.76807 -123.17714 22680 ft 456 kts 296°
2026-04-21 16:33 47.78354 -123.21844 23228 ft 460 kts 296°
2026-04-21 16:33 47.79916 -123.26024 23757 ft 463 kts 296°
2026-04-21 16:34 47.81482 -123.30222 24262 ft 467 kts 296°
2026-04-21 16:34 47.83062 -123.34461 24779 ft 470 kts 296°
2026-04-21 16:34 47.84650 -123.38730 25293 ft 473 kts 295°
2026-04-21 16:34 47.85707 -123.41574 25636 ft 475 kts 295°
2026-04-21 16:35 47.88048 -123.47118 26284 ft 483 kts 306°
2026-04-21 16:35 47.90352 -123.50804 26752 ft 490 kts 314°
2026-04-21 16:35 47.92910 -123.54176 27274 ft 493 kts 318°
2026-04-21 16:35 47.95571 -123.57437 27742 ft 496 kts 319°
2026-04-21 16:36 47.98258 -123.60699 28199 ft 500 kts 318°
2026-04-21 16:36 48.00949 -123.64022 28678 ft 503 kts 317°
2026-04-21 16:36 48.02724 -123.66253 28973 ft 505 kts 317°
2026-04-21 16:36 48.06276 -123.70794 29567 ft 509 kts 316°
2026-04-21 16:37 48.08961 -123.74271 29986 ft 512 kts 316°
2026-04-21 16:37 48.11655 -123.77779 30343 ft 516 kts 316°
2026-04-21 16:37 48.14365 -123.81317 30635 ft 519 kts 316°
2026-04-21 16:37 48.17100 -123.84891 30917 ft 523 kts 315°
2026-04-21 16:38 48.18917 -123.87266 31140 ft 524 kts 315°
2026-04-21 16:38 48.21660 -123.90855 31498 ft 525 kts 315°
2026-04-21 16:38 48.24415 -123.94460 31873 ft 525 kts 315°
2026-04-21 16:38 48.28065 -123.99244 32325 ft 527 kts 314°
2026-04-21 16:39 48.30823 -124.02867 32658 ft 528 kts 314°
2026-04-21 16:39 48.33589 -124.06504 32990 ft 528 kts 314°
2026-04-21 16:39 48.35455 -124.08962 33199 ft 529 kts 314°
2026-04-21 16:39 48.38186 -124.12564 33509 ft 529 kts 314°
2026-04-21 16:40 48.40953 -124.16218 33820 ft 530 kts 313°
2026-04-21 16:40 48.43726 -124.19886 34109 ft 530 kts 313°
2026-04-21 16:40 48.46486 -124.23540 34489 ft 527 kts 314°
2026-04-21 16:40 48.49235 -124.27184 34822 ft 526 kts 314°
2026-04-21 16:41 48.51972 -124.30836 35136 ft 524 kts 313°
2026-04-21 16:41 48.54696 -124.34492 35439 ft 523 kts 313°
2026-04-21 16:41 48.57411 -124.38140 35673 ft 522 kts 313°
2026-04-21 16:41 48.60125 -124.41783 35860 ft 523 kts 314°
2026-04-21 16:42 48.62841 -124.45427 35905 ft 523 kts 314°
2026-04-21 16:42 48.68212 -124.52622 35913 ft 519 kts 314°
2026-04-21 16:43 48.73573 -124.59820 35907 ft 519 kts 314°
2026-04-21 16:43 48.78968 -124.67090 35918 ft 519 kts 314°
2026-04-21 16:44 48.84345 -124.74358 35926 ft 517 kts 314°
2026-04-21 16:44 48.89668 -124.81574 35903 ft 516 kts 314°
2026-04-21 16:45 48.95020 -124.88879 35923 ft 515 kts 312°
2026-04-21 16:45 48.99860 -124.96823 35918 ft 510 kts 306°
2026-04-21 16:46 49.04344 -125.05170 35912 ft 509 kts 304°
2026-04-21 16:46 49.08820 -125.13528 35911 ft 509 kts 305°
2026-04-21 16:47 49.13312 -125.21801 35915 ft 509 kts 305°
2026-04-21 16:47 49.17834 -125.30102 35914 ft 508 kts 306°
2026-04-21 16:48 49.22348 -125.38413 35909 ft 508 kts 305°
2026-04-21 16:48 49.26848 -125.46734 35906 ft 507 kts 305°
2026-04-21 16:49 49.31337 -125.55059 35914 ft 506 kts 305°
2026-04-21 16:49 49.35780 -125.63324 35909 ft 506 kts 306°
2026-04-21 16:50 49.40252 -125.71671 35904 ft 506 kts 306°
2026-04-21 16:50 49.44716 -125.80033 35902 ft 507 kts 306°
2026-04-21 16:51 49.49165 -125.88402 35895 ft 502 kts 306°
2026-04-21 16:51 49.53551 -125.96753 35893 ft 501 kts 306°
2026-04-21 16:52 49.57905 -126.05033 35893 ft 501 kts 306°
2026-04-21 16:52 49.62296 -126.13372 35896 ft 501 kts 306°
2026-04-21 16:53 49.66675 -126.21700 35901 ft 499 kts 306°
2026-04-21 16:53 49.71047 -126.30041 35896 ft 499 kts 306°
2026-04-21 16:54 49.75404 -126.38382 35899 ft 498 kts 306°
2026-04-21 16:54 49.79724 -126.46678 35914 ft 499 kts 306°
2026-04-21 16:55 49.84079 -126.55071 35896 ft 500 kts 306°
2026-04-21 16:55 49.88430 -126.63482 35899 ft 500 kts 306°
2026-04-21 16:56 49.92773 -126.71903 35903 ft 500 kts 306°
2026-04-21 16:56 49.97080 -126.80280 35900 ft 500 kts 306°
2026-04-21 16:57 50.01407 -126.88736 35909 ft 499 kts 305°
2026-04-21 16:57 50.05702 -126.97237 35906 ft 500 kts 305°
2026-04-21 16:58 50.10003 -127.05736 35907 ft 499 kts 305°
2026-04-21 16:58 50.14264 -127.14139 35901 ft 494 kts 306°
2026-04-21 16:59 50.18521 -127.22552 35918 ft 493 kts 306°
2026-04-21 16:59 50.22762 -127.30961 35911 ft 493 kts 306°
2026-04-21 17:00 50.27000 -127.39391 35915 ft 493 kts 305°
2026-04-21 17:00 50.30507 -127.46390 35915 ft 491 kts 305°
2026-04-21 17:01 50.35393 -127.56172 35918 ft 490 kts 305°
2026-04-21 17:01 50.39586 -127.64595 35922 ft 490 kts 305°
2026-04-21 17:02 50.43776 -127.73040 35923 ft 490 kts 305°
2026-04-21 17:02 50.47945 -127.81466 35913 ft 488 kts 305°
2026-04-21 17:03 50.52068 -127.89834 35922 ft 487 kts 305°
2026-04-21 17:03 50.56178 -127.98291 35925 ft 487 kts 304°
2026-04-21 17:04 50.60292 -128.06752 35957 ft 486 kts 304°
2026-04-21 17:04 50.64394 -128.15164 35948 ft 483 kts 304°
2026-04-21 17:05 50.68450 -128.23487 35947 ft 481 kts 305°
2026-04-21 17:05 50.72517 -128.31875 35951 ft 482 kts 304°
2026-04-21 17:06 50.76586 -128.40291 35979 ft 482 kts 304°
2026-04-21 17:06 50.80630 -128.48681 35963 ft 479 kts 304°
2026-04-21 17:07 50.84531 -128.57211 35963 ft 477 kts 300°
2026-04-21 17:07 50.88001 -128.66076 35966 ft 477 kts 298°
2026-04-21 17:08 50.91419 -128.75083 35974 ft 477 kts 298°
2026-04-21 17:08 50.94850 -128.84049 35975 ft 475 kts 298°
2026-04-21 17:09 51.00003 -128.97467 35980 ft 475 kts 297°
2026-04-21 17:09 51.03412 -129.06370 35982 ft 475 kts 297°
2026-04-21 17:10 51.06837 -129.15351 36002 ft 474 kts 297°
2026-04-21 17:10 51.10237 -129.24300 35986 ft 472 kts 297°
2026-04-21 17:11 51.13621 -129.33238 35988 ft 471 kts 297°
2026-04-21 17:11 51.16997 -129.42192 35988 ft 471 kts 297°
2026-04-21 17:12 51.20342 -129.51091 35992 ft 471 kts 297°
2026-04-21 17:12 51.23697 -129.60040 35995 ft 468 kts 296°
2026-04-21 17:13 51.27017 -129.68961 36004 ft 467 kts 296°
2026-04-21 17:13 51.30300 -129.77917 36007 ft 467 kts 296°
2026-04-21 17:14 51.33570 -129.86799 36007 ft 467 kts 296°
2026-04-21 17:14 51.36870 -129.95734 36016 ft 463 kts 295°
2026-04-21 17:15 51.40132 -130.04578 36009 ft 461 kts 296°
2026-04-21 17:15 51.43379 -130.13430 36021 ft 460 kts 296°
2026-04-21 17:16 51.46615 -130.22286 36021 ft 461 kts 296°
2026-04-21 17:16 51.49825 -130.31096 36023 ft 460 kts 296°
2026-04-21 17:17 51.53050 -130.39974 36037 ft 460 kts 296°
2026-04-21 17:17 51.56270 -130.48872 36037 ft 460 kts 295°
2026-04-21 17:18 51.59478 -130.57769 36037 ft 460 kts 295°
2026-04-21 17:18 51.62661 -130.66629 36039 ft 460 kts 295°
2026-04-21 17:19 51.65858 -130.75556 36043 ft 460 kts 295°
2026-04-21 17:19 51.69036 -130.84501 36041 ft 460 kts 295°
2026-04-21 17:20 51.72179 -130.93479 36055 ft 460 kts 295°
2026-04-21 17:20 51.75317 -131.02398 36058 ft 460 kts 295°
2026-04-21 17:21 51.78480 -131.11366 36093 ft 460 kts 295°
2026-04-21 17:21 51.81628 -131.20309 36075 ft 457 kts 295°
2026-04-21 17:22 51.84762 -131.29248 36070 ft 457 kts 295°
2026-04-21 17:22 51.87888 -131.38199 36076 ft 457 kts 295°
2026-04-21 17:23 51.90986 -131.47100 36074 ft 457 kts 295°
2026-04-21 17:23 51.94095 -131.56065 36083 ft 456 kts 294°
2026-04-21 17:24 51.97194 -131.65029 36081 ft 455 kts 294°
2026-04-21 17:24 52.00282 -131.73998 36082 ft 456 kts 295°
2026-04-21 17:25 52.03351 -131.82943 36094 ft 457 kts 294°
2026-04-21 17:25 52.06434 -131.91963 36123 ft 457 kts 294°
2026-04-21 17:26 52.09494 -132.00971 36110 ft 455 kts 294°
2026-04-21 17:26 52.12511 -132.10011 36106 ft 455 kts 294°
2026-04-21 17:27 52.15541 -132.19045 36111 ft 455 kts 294°
2026-04-21 17:27 52.18558 -132.28013 36111 ft 455 kts 294°
2026-04-21 17:28 52.21594 -132.37053 36126 ft 454 kts 294°
2026-04-21 17:28 52.24614 -132.46075 36128 ft 453 kts 294°
2026-04-21 17:29 52.27622 -132.55100 36136 ft 453 kts 294°
2026-04-21 17:29 52.30624 -132.64141 36135 ft 453 kts 294°
2026-04-21 17:30 52.33598 -132.73129 36142 ft 453 kts 294°
2026-04-21 17:30 52.36579 -132.82170 36150 ft 451 kts 294°
2026-04-21 17:31 52.39548 -132.91209 36151 ft 451 kts 294°
2026-04-21 17:31 52.42504 -133.00243 36155 ft 450 kts 294°
2026-04-21 17:32 52.45441 -133.09252 36155 ft 450 kts 294°
2026-04-21 17:32 52.48384 -133.18316 36190 ft 450 kts 294°
2026-04-21 17:33 52.51278 -133.27404 36170 ft 449 kts 294°
2026-04-21 17:33 52.54179 -133.36502 36177 ft 449 kts 294°
2026-04-21 17:34 52.57069 -133.45523 36175 ft 449 kts 294°
2026-04-21 17:34 52.59981 -133.54621 36180 ft 449 kts 294°
2026-04-21 17:35 52.62885 -133.63726 36190 ft 449 kts 294°
2026-04-21 17:35 52.65777 -133.72827 36194 ft 448 kts 294°
2026-04-21 17:36 52.68640 -133.81871 36192 ft 448 kts 294°
2026-04-21 17:36 52.71515 -133.90989 36196 ft 448 kts 294°
2026-04-21 17:37 52.74384 -134.00120 36201 ft 448 kts 294°
2026-04-21 17:37 52.77243 -134.09253 36202 ft 447 kts 294°
2026-04-21 17:38 52.80090 -134.18384 36200 ft 447 kts 294°
2026-04-21 17:38 52.82911 -134.27468 36205 ft 447 kts 294°
2026-04-21 17:39 52.85744 -134.36623 36205 ft 447 kts 294°
2026-04-21 17:39 52.88542 -134.45805 36205 ft 447 kts 294°
2026-04-21 17:40 52.91325 -134.55008 36207 ft 447 kts 294°
2026-04-21 17:40 52.94104 -134.64139 36208 ft 447 kts 294°
2026-04-21 17:41 52.96907 -134.73340 36207 ft 447 kts 294°
2026-04-21 17:41 53.00015 -134.82272 36206 ft 451 kts 305°
2026-04-21 17:42 53.04636 -134.89399 36223 ft 459 kts 322°
2026-04-21 17:42 53.10042 -134.94959 36214 ft 461 kts 324°
2026-04-21 17:43 53.15455 -135.00648 36216 ft 459 kts 322°
2026-04-21 17:43 53.20750 -135.06607 36216 ft 459 kts 321°
2026-04-21 17:44 53.25996 -135.12669 36232 ft 459 kts 321°
2026-04-21 17:44 53.31220 -135.18734 36220 ft 457 kts 321°
2026-04-21 17:45 53.36398 -135.24757 36219 ft 456 kts 321°
2026-04-21 17:45 53.41614 -135.30836 36216 ft 456 kts 321°
2026-04-21 17:46 53.46825 -135.36928 36217 ft 456 kts 321°
2026-04-21 17:46 53.52029 -135.43027 36218 ft 455 kts 321°
2026-04-21 17:47 53.57212 -135.49124 36219 ft 455 kts 321°
2026-04-21 17:47 53.62357 -135.55193 36218 ft 455 kts 321°
2026-04-21 17:48 53.67537 -135.61322 36227 ft 455 kts 321°
2026-04-21 17:48 53.72700 -135.67487 36221 ft 453 kts 321°
2026-04-21 17:49 53.77833 -135.73651 36216 ft 453 kts 321°
2026-04-21 17:49 53.82940 -135.79769 36219 ft 453 kts 321°
2026-04-21 17:50 53.88079 -135.85926 36220 ft 453 kts 321°
2026-04-21 17:50 53.93215 -135.92096 36220 ft 453 kts 321°
2026-04-21 17:51 53.98320 -135.98284 36220 ft 449 kts 319°
2026-04-21 17:51 54.02618 -136.05694 36216 ft 441 kts 302°
2026-04-21 17:52 54.05598 -136.14768 36222 ft 440 kts 295°
2026-04-21 17:52 54.08342 -136.24081 36222 ft 440 kts 295°
2026-04-21 17:53 54.11191 -136.33307 36223 ft 440 kts 296°
2026-04-21 17:53 54.14097 -136.42468 36216 ft 439 kts 297°
2026-04-21 17:54 54.16991 -136.51563 36216 ft 439 kts 297°
2026-04-21 17:54 54.19897 -136.60733 36216 ft 439 kts 297°
2026-04-21 17:55 54.22795 -136.69918 36218 ft 439 kts 296°
2026-04-21 17:55 54.25681 -136.79105 36214 ft 438 kts 297°
2026-04-21 17:56 54.28537 -136.88228 36216 ft 438 kts 297°
2026-04-21 17:56 54.31403 -136.97421 36223 ft 438 kts 297°
2026-04-21 17:57 54.34263 -137.06629 36216 ft 438 kts 296°
2026-04-21 17:57 54.37113 -137.15839 36225 ft 438 kts 296°
2026-04-21 17:58 54.39936 -137.25001 36226 ft 437 kts 297°
2026-04-21 17:58 54.42746 -137.34241 36223 ft 436 kts 296°
2026-04-21 17:59 54.45530 -137.43503 36215 ft 436 kts 296°
2026-04-21 17:59 54.48331 -137.52756 36217 ft 436 kts 296°
2026-04-21 18:00 54.51115 -137.61938 36222 ft 436 kts 296°
2026-04-21 18:00 54.53913 -137.71189 36224 ft 434 kts 297°
2026-04-21 18:01 54.56694 -137.80425 36219 ft 434 kts 297°
2026-04-21 18:01 54.59470 -137.89678 36216 ft 434 kts 296°
2026-04-21 18:02 54.62235 -137.98935 36217 ft 434 kts 296°
2026-04-21 18:02 54.64977 -138.08146 36215 ft 434 kts 296°
2026-04-21 18:03 54.67729 -138.17431 36219 ft 434 kts 296°
2026-04-21 18:03 54.70473 -138.26724 36223 ft 434 kts 296°
2026-04-21 18:04 54.73213 -138.36038 36223 ft 434 kts 296°
2026-04-21 18:04 54.75926 -138.45297 36225 ft 434 kts 296°
2026-04-21 18:05 54.78649 -138.54629 36219 ft 434 kts 296°
2026-04-21 18:05 54.81329 -138.63993 36221 ft 433 kts 296°
2026-04-21 18:06 54.83997 -138.73355 36220 ft 433 kts 296°
2026-04-21 18:06 54.86658 -138.82629 36219 ft 432 kts 296°
2026-04-21 18:07 54.89342 -138.91980 36219 ft 432 kts 296°
2026-04-21 18:07 54.92019 -139.01336 36217 ft 432 kts 296°
2026-04-21 18:08 54.94686 -139.10694 36219 ft 431 kts 296°
2026-04-21 18:08 54.97334 -139.20028 36215 ft 430 kts 296°
2026-04-21 18:09 54.99960 -139.29317 36217 ft 430 kts 296°
2026-04-21 18:09 55.02596 -139.38682 36217 ft 430 kts 296°
2026-04-21 18:10 55.05223 -139.48054 36217 ft 430 kts 296°
2026-04-21 18:10 55.07842 -139.57434 36217 ft 429 kts 296°
2026-04-21 18:11 55.10445 -139.66795 36217 ft 429 kts 296°
2026-04-21 18:11 55.13024 -139.76109 36214 ft 429 kts 296°
2026-04-21 18:12 55.15614 -139.85500 36214 ft 429 kts 295°
2026-04-21 18:12 55.18157 -139.94929 36211 ft 429 kts 295°
2026-04-21 18:13 55.20700 -140.04369 36213 ft 428 kts 295°
2026-04-21 18:13 55.23235 -140.13713 36209 ft 428 kts 295°
2026-04-21 18:14 55.27062 -140.27836 36201 ft 428 kts 295°
2026-04-21 18:15 55.29609 -140.37279 36205 ft 429 kts 295°
2026-04-21 18:15 55.32148 -140.46733 36213 ft 429 kts 295°
2026-04-21 18:16 55.34685 -140.56218 36213 ft 428 kts 295°
2026-04-21 18:16 55.37191 -140.65629 36212 ft 428 kts 295°
2026-04-21 18:17 55.39706 -140.75113 36212 ft 428 kts 295°
2026-04-21 18:17 55.42216 -140.84617 36212 ft 428 kts 295°
2026-04-21 18:18 55.44718 -140.94129 36211 ft 428 kts 295°
2026-04-21 18:18 55.47196 -141.03592 36214 ft 428 kts 295°
2026-04-21 18:19 55.49682 -141.13125 36207 ft 428 kts 295°
2026-04-21 18:19 55.52145 -141.22688 36205 ft 428 kts 294°
2026-04-21 18:20 55.54571 -141.32279 36208 ft 428 kts 294°
2026-04-21 18:20 55.56999 -141.41797 36208 ft 428 kts 294°
2026-04-21 18:21 55.59452 -141.51381 36210 ft 428 kts 294°
2026-04-21 18:21 55.61901 -141.60973 36210 ft 428 kts 294°
2026-04-21 18:22 55.64342 -141.70576 36204 ft 428 kts 294°
2026-04-21 18:22 55.66759 -141.80127 36207 ft 428 kts 294°
2026-04-21 18:23 55.69186 -141.89757 36198 ft 428 kts 294°
2026-04-21 18:23 55.71604 -141.99395 36215 ft 428 kts 294°
2026-04-21 18:24 55.74012 -142.09035 36201 ft 427 kts 294°
2026-04-21 18:24 55.76413 -142.18692 36203 ft 427 kts 294°
2026-04-21 18:25 55.78790 -142.28292 36201 ft 427 kts 294°
2026-04-21 18:25 55.81176 -142.37969 36199 ft 427 kts 294°
2026-04-21 18:26 55.83554 -142.47657 36200 ft 427 kts 294°
2026-04-21 18:26 55.85904 -142.57365 36200 ft 427 kts 293°
2026-04-21 18:27 55.88220 -142.67105 36205 ft 427 kts 293°
2026-04-21 18:27 55.90538 -142.76769 36201 ft 427 kts 294°
2026-04-21 18:28 55.92877 -142.86487 36199 ft 427 kts 294°
2026-04-21 18:28 55.95215 -142.96224 36201 ft 427 kts 294°
2026-04-21 18:29 55.97542 -143.05963 36199 ft 427 kts 293°
2026-04-21 18:29 55.99847 -143.15653 36197 ft 427 kts 293°
2026-04-21 18:30 56.02161 -143.25422 36170 ft 427 kts 293°
2026-04-21 18:30 56.04474 -143.35233 36191 ft 428 kts 293°
2026-04-21 18:31 56.06779 -143.45058 36208 ft 428 kts 293°
2026-04-21 18:31 56.09059 -143.54818 36193 ft 428 kts 293°
2026-04-21 18:32 56.11345 -143.64652 36197 ft 428 kts 293°
2026-04-21 18:32 56.13625 -143.74502 36188 ft 428 kts 293°
2026-04-21 18:33 56.15895 -143.84355 36195 ft 428 kts 293°
2026-04-21 18:33 56.18140 -143.94240 36193 ft 428 kts 292°
2026-04-21 18:34 56.20423 -144.04024 36190 ft 427 kts 294°
2026-04-21 18:34 56.22698 -144.13882 36199 ft 427 kts 293°
2026-04-21 18:35 56.24549 -144.22110 36197 ft 427 kts 292°
2026-04-21 18:35 56.27138 -144.33698 36188 ft 427 kts 292°
2026-04-21 18:36 56.29336 -144.43567 36193 ft 427 kts 292°
2026-04-21 18:36 56.31540 -144.53502 36185 ft 427 kts 292°
2026-04-21 18:37 56.33734 -144.63441 36190 ft 427 kts 292°
2026-04-21 18:37 56.35918 -144.73379 36185 ft 426 kts 292°
2026-04-21 18:38 56.38081 -144.83268 36184 ft 426 kts 292°
2026-04-21 18:38 56.40248 -144.93226 36186 ft 426 kts 292°
2026-04-21 18:39 56.42407 -145.03200 36182 ft 426 kts 292°
2026-04-21 18:39 56.44535 -145.13204 36190 ft 425 kts 292°
2026-04-21 18:40 56.46664 -145.23170 36181 ft 425 kts 292°
2026-04-21 18:40 56.48442 -145.31458 36184 ft 425 kts 292°
2026-04-21 18:41 56.50926 -145.43054 36173 ft 425 kts 292°
2026-04-21 18:41 56.53054 -145.53042 36174 ft 425 kts 292°
2026-04-21 18:42 56.55174 -145.63041 36179 ft 424 kts 292°
2026-04-21 18:42 56.57267 -145.72959 36177 ft 424 kts 292°
2026-04-21 18:43 56.59363 -145.82941 36176 ft 424 kts 292°
2026-04-21 18:43 56.61451 -145.92939 36177 ft 424 kts 292°
2026-04-21 18:44 56.63531 -146.02945 36164 ft 424 kts 292°
2026-04-21 18:44 56.65604 -146.12965 36165 ft 424 kts 292°
2026-04-21 18:45 56.67665 -146.22976 36166 ft 422 kts 291°
2026-04-21 18:45 56.69700 -146.32914 36153 ft 422 kts 291°
2026-04-21 18:46 56.71744 -146.42947 36166 ft 423 kts 291°
2026-04-21 18:46 56.73736 -146.53022 36180 ft 423 kts 291°
2026-04-21 18:47 56.75730 -146.63108 36166 ft 423 kts 291°
2026-04-21 18:47 56.77724 -146.73101 36166 ft 421 kts 291°
2026-04-21 18:48 56.79725 -146.83132 36167 ft 420 kts 291°
2026-04-21 18:48 56.81719 -146.93163 36158 ft 421 kts 291°
2026-04-21 18:49 56.83705 -147.03209 36156 ft 421 kts 291°
2026-04-21 18:49 56.85349 -147.11561 36163 ft 421 kts 291°
2026-04-21 18:50 56.87637 -147.23255 36166 ft 420 kts 291°
2026-04-21 18:50 56.89594 -147.33308 36153 ft 419 kts 291°
2026-04-21 18:51 56.91538 -147.43347 36154 ft 419 kts 290°
2026-04-21 18:51 56.93476 -147.53409 36149 ft 419 kts 290°
2026-04-21 18:52 56.95404 -147.63467 36152 ft 419 kts 290°
2026-04-21 18:52 56.97311 -147.73472 36156 ft 419 kts 290°
2026-04-21 18:53 56.99224 -147.83559 36149 ft 419 kts 290°
2026-04-21 18:53 57.01094 -147.93672 36154 ft 419 kts 289°
2026-04-21 18:54 57.02631 -148.02091 36148 ft 419 kts 290°
2026-04-21 18:54 57.04805 -148.13859 36150 ft 419 kts 290°
2026-04-21 18:55 57.06365 -148.22267 36137 ft 419 kts 290°
2026-04-21 18:55 57.08239 -148.32407 36141 ft 419 kts 290°
2026-04-21 18:56 57.10102 -148.42540 36145 ft 419 kts 290°
2026-04-21 18:56 57.12246 -148.54347 36138 ft 419 kts 289°
2026-04-21 18:57 57.13775 -148.62866 36133 ft 419 kts 289°
2026-04-21 18:57 57.15596 -148.72985 36139 ft 419 kts 289°
2026-04-21 18:58 57.17425 -148.83164 36137 ft 419 kts 289°
2026-04-21 18:58 57.19248 -148.93356 36145 ft 418 kts 289°
2026-04-21 18:59 57.21062 -149.03548 36133 ft 418 kts 289°
2026-04-21 18:59 57.22853 -149.13670 36139 ft 418 kts 289°
2026-04-21 19:00 57.24648 -149.23877 36139 ft 418 kts 288°
2026-04-21 19:00 57.26436 -149.34092 36141 ft 418 kts 288°
2026-04-21 19:01 57.28213 -149.44308 36144 ft 418 kts 288°
2026-04-21 19:01 57.29986 -149.54549 36132 ft 419 kts 288°
2026-04-21 19:02 57.31746 -149.64784 36132 ft 421 kts 288°
2026-04-21 19:02 57.33512 -149.75108 36132 ft 421 kts 288°
2026-04-21 19:03 57.35267 -149.85429 36128 ft 421 kts 288°
2026-04-21 19:03 57.37009 -149.95777 36130 ft 421 kts 287°
2026-04-21 19:04 57.38683 -150.06081 36124 ft 420 kts 287°
2026-04-21 19:04 57.40381 -150.16442 36133 ft 420 kts 287°
2026-04-21 19:05 57.42095 -150.26806 36124 ft 420 kts 287°
2026-04-21 19:05 57.43805 -150.37165 36127 ft 420 kts 287°
2026-04-21 19:06 57.45509 -150.47536 36127 ft 420 kts 287°
2026-04-21 19:06 57.47244 -150.57826 36136 ft 420 kts 288°
2026-04-21 19:07 57.49078 -150.68130 36122 ft 420 kts 288°
2026-04-21 19:07 57.50926 -150.78434 36118 ft 420 kts 288°
2026-04-21 19:08 57.52763 -150.88740 36123 ft 420 kts 288°
2026-04-21 19:08 57.54579 -150.98993 36118 ft 420 kts 288°
2026-04-21 19:09 57.56398 -151.09326 36116 ft 420 kts 288°
2026-04-21 19:09 57.58209 -151.19672 36118 ft 420 kts 287°
2026-04-21 19:10 57.60008 -151.30008 36104 ft 419 kts 287°
2026-04-21 19:10 57.61787 -151.40289 36113 ft 419 kts 287°
2026-04-21 19:11 57.63570 -151.50652 36095 ft 419 kts 287°
2026-04-21 19:11 57.65344 -151.61021 36099 ft 419 kts 287°
2026-04-21 19:12 57.67109 -151.71397 36127 ft 419 kts 287°
2026-04-21 19:12 57.68851 -151.81701 36103 ft 418 kts 287°
2026-04-21 19:13 57.70595 -151.92074 36099 ft 418 kts 287°
2026-04-21 19:13 57.72311 -152.02456 36098 ft 418 kts 286°
2026-04-21 19:14 57.73983 -152.12872 36094 ft 418 kts 286°
2026-04-21 19:14 57.75677 -152.23281 36101 ft 418 kts 286°
2026-04-21 19:15 57.77346 -152.33629 36101 ft 417 kts 283°
2026-04-21 19:15 57.78386 -152.44286 36100 ft 416 kts 277°
2026-04-21 19:16 57.79114 -152.55029 36093 ft 416 kts 277°
2026-04-21 19:16 57.79842 -152.65788 36100 ft 416 kts 277°
2026-04-21 19:17 57.80962 -152.81849 36089 ft 416 kts 277°
2026-04-21 19:17 57.81713 -152.92637 36087 ft 418 kts 277°
2026-04-21 19:18 57.82459 -153.03487 36097 ft 420 kts 277°
2026-04-21 19:18 57.83196 -153.14358 36099 ft 420 kts 277°
2026-04-21 19:19 57.83921 -153.25195 36097 ft 420 kts 277°
2026-04-21 19:19 57.84634 -153.35997 36096 ft 420 kts 276°
2026-04-21 19:20 57.85344 -153.46885 36100 ft 420 kts 276°
2026-04-21 19:20 57.86044 -153.57771 36100 ft 421 kts 276°
2026-04-21 19:21 57.86736 -153.68700 36105 ft 421 kts 276°
2026-04-21 19:21 57.87416 -153.79567 36111 ft 422 kts 276°
2026-04-21 19:22 57.88080 -153.90495 36108 ft 421 kts 275°
2026-04-21 19:22 57.88687 -154.01492 36107 ft 421 kts 275°
2026-04-21 19:23 57.89308 -154.12399 36107 ft 421 kts 276°
2026-04-21 19:23 57.89947 -154.23375 36108 ft 421 kts 276°
2026-04-21 19:24 57.90580 -154.34267 36111 ft 421 kts 276°
2026-04-21 19:24 57.91210 -154.45263 36115 ft 421 kts 275°
2026-04-21 19:25 57.91825 -154.56175 36119 ft 421 kts 275°
2026-04-21 19:25 57.92428 -154.67062 36119 ft 421 kts 275°
2026-04-21 19:26 57.93026 -154.78012 36107 ft 422 kts 275°
2026-04-21 19:26 57.93617 -154.89009 36117 ft 422 kts 275°
2026-04-21 19:27 57.94198 -155.00009 36116 ft 422 kts 275°
2026-04-21 19:27 57.94769 -155.11005 36114 ft 422 kts 275°
2026-04-21 19:28 57.95331 -155.22008 36115 ft 422 kts 275°
2026-04-21 19:28 57.95879 -155.32942 36114 ft 422 kts 275°
2026-04-21 19:29 57.96419 -155.43942 36110 ft 422 kts 274°
2026-04-21 19:29 57.96895 -155.54942 36111 ft 421 kts 274°
2026-04-21 19:30 57.97377 -155.65925 36103 ft 421 kts 274°
2026-04-21 19:30 57.97876 -155.76842 36089 ft 420 kts 274°
2026-04-21 19:31 57.98377 -155.87813 36098 ft 421 kts 274°
2026-04-21 19:31 57.98872 -155.98803 36093 ft 421 kts 274°
2026-04-21 19:32 57.99356 -156.09791 36110 ft 421 kts 274°
2026-04-21 19:32 57.99830 -156.20762 36080 ft 419 kts 274°
2026-04-21 19:33 58.00291 -156.31655 36079 ft 419 kts 273°
2026-04-21 19:33 58.00744 -156.42614 36085 ft 419 kts 273°
2026-04-21 19:34 58.01189 -156.53579 36082 ft 419 kts 273°
2026-04-21 19:34 58.01624 -156.64546 36073 ft 419 kts 273°
2026-04-21 19:35 58.02259 -156.80978 36079 ft 421 kts 272°
2026-04-21 19:36 58.02672 -156.92003 36084 ft 421 kts 272°
2026-04-21 19:36 58.03063 -157.03036 36091 ft 421 kts 272°
2026-04-21 19:37 58.03397 -157.14070 36096 ft 421 kts 272°
2026-04-21 19:37 58.03752 -157.25117 36100 ft 421 kts 272°
2026-04-21 19:38 58.04118 -157.36081 36102 ft 421 kts 272°
2026-04-21 19:38 58.04484 -157.47102 36101 ft 420 kts 272°
2026-04-21 19:39 58.04840 -157.58107 36072 ft 420 kts 272°
2026-04-21 19:39 58.05186 -157.69112 36061 ft 420 kts 272°
2026-04-21 19:40 58.05520 -157.80047 36072 ft 420 kts 271°
2026-04-21 19:40 58.05846 -157.91053 36070 ft 420 kts 271°
2026-04-21 19:41 58.06164 -158.02071 36083 ft 420 kts 271°
2026-04-21 19:41 58.06471 -158.13068 36073 ft 419 kts 271°
2026-04-21 19:42 58.06766 -158.23985 36066 ft 419 kts 271°
2026-04-21 19:42 58.07054 -158.34972 36066 ft 419 kts 271°
2026-04-21 19:43 58.07333 -158.45965 36063 ft 419 kts 271°
2026-04-21 19:43 58.07599 -158.56957 36061 ft 419 kts 270°
2026-04-21 19:44 58.07800 -158.67973 36074 ft 421 kts 270°
2026-04-21 19:44 58.08011 -158.78975 36069 ft 422 kts 270°
2026-04-21 19:45 58.08243 -158.90057 36060 ft 422 kts 270°
2026-04-21 19:45 58.08475 -159.01143 36058 ft 422 kts 270°
2026-04-21 19:46 58.08699 -159.12220 36062 ft 422 kts 270°
2026-04-21 19:46 58.08911 -159.23225 36058 ft 422 kts 270°
2026-04-21 19:47 58.09116 -159.34316 36057 ft 423 kts 269°
2026-04-21 19:47 58.09310 -159.45429 36059 ft 423 kts 269°
2026-04-21 19:48 58.09495 -159.56542 36054 ft 423 kts 269°
2026-04-21 19:48 58.09670 -159.67671 36059 ft 423 kts 269°
2026-04-21 19:49 58.09835 -159.78720 36043 ft 423 kts 269°
2026-04-21 19:49 58.09991 -159.89836 36053 ft 423 kts 269°
2026-04-21 19:50 58.10113 -159.99083 36051 ft 424 kts 269°
2026-04-21 19:50 58.10274 -160.12121 36037 ft 424 kts 268°
2026-04-21 19:51 58.10349 -160.23190 36035 ft 424 kts 268°
2026-04-21 19:51 58.10421 -160.34333 36041 ft 424 kts 268°
2026-04-21 19:52 58.10515 -160.45490 36036 ft 424 kts 268°
2026-04-21 19:52 58.10612 -160.56653 36028 ft 426 kts 268°
2026-04-21 19:53 58.10701 -160.67869 36015 ft 427 kts 268°
2026-04-21 19:53 58.10780 -160.79027 36027 ft 427 kts 268°
2026-04-21 19:54 58.10849 -160.90253 36017 ft 427 kts 268°
2026-04-21 19:54 58.10908 -161.01481 36016 ft 427 kts 268°
2026-04-21 19:55 58.10958 -161.12712 36019 ft 427 kts 268°
2026-04-21 19:55 58.10997 -161.23859 36040 ft 427 kts 267°
2026-04-21 19:56 58.11026 -161.35106 36018 ft 428 kts 267°
2026-04-21 19:56 58.11046 -161.46359 36011 ft 428 kts 267°
2026-04-21 19:57 58.11056 -161.57579 35999 ft 428 kts 267°
2026-04-21 19:57 58.11056 -161.68816 36002 ft 428 kts 267°
2026-04-21 19:58 58.10995 -161.80008 35998 ft 427 kts 266°
2026-04-21 19:58 58.10929 -161.91262 36016 ft 428 kts 266°
2026-04-21 19:59 58.10885 -162.02524 35993 ft 428 kts 266°
2026-04-21 19:59 58.10844 -162.13747 35979 ft 428 kts 266°
2026-04-21 20:00 58.10795 -162.25001 35980 ft 428 kts 266°
2026-04-21 20:00 58.10736 -162.36191 35981 ft 428 kts 266°
2026-04-21 20:01 58.10666 -162.47462 35982 ft 428 kts 266°
2026-04-21 20:01 58.10587 -162.58669 35984 ft 429 kts 266°
2026-04-21 20:02 58.10497 -162.69976 35977 ft 429 kts 266°
2026-04-21 20:02 58.10398 -162.81173 35974 ft 429 kts 266°
2026-04-21 20:03 58.10289 -162.92493 35964 ft 429 kts 266°
2026-04-21 20:03 58.10169 -163.03725 35963 ft 429 kts 266°
2026-04-21 20:04 58.10039 -163.15061 35962 ft 429 kts 265°
2026-04-21 20:04 58.09900 -163.26315 35962 ft 431 kts 265°
2026-04-21 20:05 58.09697 -163.37601 35954 ft 431 kts 265°
2026-04-21 20:05 58.09493 -163.48873 35955 ft 431 kts 265°
2026-04-21 20:06 58.09309 -163.60203 35949 ft 431 kts 265°
2026-04-21 20:06 58.09128 -163.71532 35949 ft 431 kts 265°
2026-04-21 20:07 58.08938 -163.82874 35946 ft 431 kts 265°
2026-04-21 20:07 58.08739 -163.94178 35953 ft 432 kts 264°
2026-04-21 20:08 58.08528 -164.05490 35951 ft 432 kts 264°
2026-04-21 20:08 58.08307 -164.16837 35950 ft 432 kts 264°
2026-04-21 20:09 58.08076 -164.28169 35944 ft 432 kts 264°
2026-04-21 20:09 58.07835 -164.39530 35925 ft 433 kts 264°
2026-04-21 20:10 58.07583 -164.50876 35941 ft 435 kts 264°
2026-04-21 20:10 58.07319 -164.62326 35931 ft 436 kts 263°
2026-04-21 20:11 58.07045 -164.73761 35933 ft 436 kts 263°
2026-04-21 20:11 58.06757 -164.85183 35933 ft 436 kts 263°
2026-04-21 20:12 58.06404 -164.96558 35933 ft 436 kts 263°
2026-04-21 20:12 58.06060 -165.08015 35931 ft 436 kts 263°
2026-04-21 20:13 58.05750 -165.19405 35915 ft 438 kts 264°
2026-04-21 20:13 58.05690 -165.30947 35912 ft 439 kts 266°
2026-04-21 20:14 58.05743 -165.42477 35916 ft 440 kts 266°
2026-04-21 20:14 58.05788 -165.53980 35913 ft 439 kts 266°
2026-04-21 20:15 58.05811 -165.65536 35911 ft 439 kts 266°
2026-04-21 20:15 58.05819 -165.77063 35931 ft 440 kts 265°
2026-04-21 20:16 58.05814 -165.88580 35913 ft 441 kts 265°
2026-04-21 20:16 58.05800 -166.00190 35903 ft 442 kts 265°
2026-04-21 20:17 58.05776 -166.11802 35906 ft 441 kts 265°
2026-04-21 20:17 58.05741 -166.23339 35890 ft 441 kts 265°
2026-04-21 20:18 58.05704 -166.32943 35888 ft 441 kts 265°
2026-04-21 20:18 58.05639 -166.46452 35884 ft 443 kts 265°
2026-04-21 20:19 58.05572 -166.58119 35881 ft 443 kts 265°
2026-04-21 20:19 58.05494 -166.69775 35875 ft 445 kts 265°
2026-04-21 20:20 58.05376 -166.81393 35877 ft 446 kts 264°
2026-04-21 20:20 58.05219 -166.93103 35875 ft 446 kts 264°
2026-04-21 20:21 58.05087 -167.04791 35874 ft 446 kts 264°
2026-04-21 20:21 58.04964 -167.16428 35853 ft 446 kts 264°
2026-04-21 20:22 58.04833 -167.28157 35853 ft 446 kts 264°
2026-04-21 20:22 58.04617 -167.45652 35853 ft 446 kts 264°
2026-04-21 20:23 58.04458 -167.57391 35850 ft 445 kts 264°
2026-04-21 20:23 58.04290 -167.68994 35855 ft 446 kts 264°
2026-04-21 20:24 58.04109 -167.80715 35849 ft 447 kts 264°
2026-04-21 20:24 58.03919 -167.92415 35848 ft 447 kts 264°
2026-04-21 20:25 58.03717 -168.04127 35845 ft 447 kts 264°
2026-04-21 20:25 58.03505 -168.15813 35829 ft 447 kts 264°
2026-04-21 20:26 58.03283 -168.27495 35823 ft 447 kts 263°
2026-04-21 20:26 58.03011 -168.39270 35826 ft 448 kts 263°
2026-04-21 20:27 58.02712 -168.50922 35817 ft 448 kts 263°
2026-04-21 20:27 58.02435 -168.62693 35818 ft 448 kts 263°
2026-04-21 20:28 58.02167 -168.74394 35809 ft 448 kts 263°
2026-04-21 20:28 58.01891 -168.86093 35809 ft 448 kts 263°
2026-04-21 20:29 58.01602 -168.97871 35811 ft 448 kts 263°
2026-04-21 20:29 58.01303 -169.09603 35805 ft 448 kts 262°
2026-04-21 20:30 58.00994 -169.21305 35784 ft 450 kts 262°
2026-04-21 20:30 58.00673 -169.33094 35783 ft 450 kts 262°
2026-04-21 20:31 58.00339 -169.44909 35775 ft 450 kts 262°
2026-04-21 20:31 57.99997 -169.56611 35796 ft 451 kts 262°
2026-04-21 20:32 57.99642 -169.68378 35772 ft 450 kts 262°
2026-04-21 20:32 57.99274 -169.80156 35763 ft 450 kts 262°
2026-04-21 20:33 57.98882 -169.91904 35767 ft 450 kts 261°
2026-04-21 20:33 57.98430 -170.03661 35762 ft 450 kts 261°
2026-04-21 20:34 57.98000 -170.15456 35744 ft 451 kts 261°
2026-04-21 20:34 57.97586 -170.27195 35744 ft 452 kts 261°
2026-04-21 20:35 57.97164 -170.39013 35743 ft 452 kts 261°
2026-04-21 20:35 57.96733 -170.50776 35738 ft 452 kts 261°
2026-04-21 20:36 57.96289 -170.62592 35723 ft 451 kts 261°
2026-04-21 20:36 57.95788 -170.74385 35720 ft 452 kts 260°
2026-04-21 20:37 57.95176 -170.86099 35731 ft 453 kts 259°
2026-04-21 20:37 57.94548 -170.97931 35725 ft 453 kts 259°
2026-04-21 20:38 57.93929 -171.09710 35698 ft 453 kts 260°
2026-04-21 20:38 57.93307 -171.21443 35695 ft 454 kts 259°
2026-04-21 20:39 57.92667 -171.33306 35696 ft 453 kts 258°
2026-04-21 20:39 57.92022 -171.45015 35719 ft 454 kts 258°
2026-04-21 20:40 57.91361 -171.56822 35693 ft 457 kts 258°
2026-04-21 20:40 57.90685 -171.68691 35692 ft 457 kts 259°
2026-04-21 20:41 57.89998 -171.80602 35689 ft 457 kts 258°
2026-04-21 20:41 57.89303 -171.92434 35688 ft 458 kts 258°
2026-04-21 20:42 57.88593 -172.04317 35663 ft 457 kts 258°
2026-04-21 20:42 57.87873 -172.16162 35666 ft 457 kts 257°
2026-04-21 20:43 57.87125 -172.28008 35662 ft 457 kts 257°
2026-04-21 20:43 57.86317 -172.39898 35661 ft 458 kts 257°
2026-04-21 20:44 57.85538 -172.51707 35660 ft 458 kts 257°
2026-04-21 20:44 57.84772 -172.63527 35661 ft 457 kts 257°
2026-04-21 20:45 57.83997 -172.75377 35664 ft 458 kts 256°
2026-04-21 20:45 57.83204 -172.87291 35638 ft 459 kts 257°
2026-04-21 20:46 57.82407 -172.99115 35637 ft 459 kts 258°
2026-04-21 20:46 57.81598 -173.10951 35636 ft 458 kts 256°
2026-04-21 20:47 57.80774 -173.22851 35633 ft 458 kts 256°
2026-04-21 20:47 57.79943 -173.34652 35632 ft 459 kts 256°
2026-04-21 20:48 57.79097 -173.46510 35631 ft 459 kts 256°
2026-04-21 20:48 57.78246 -173.58283 35631 ft 458 kts 256°
2026-04-21 20:49 57.77381 -173.70099 35627 ft 458 kts 257°
2026-04-21 20:49 57.76483 -173.81980 35603 ft 461 kts 255°
2026-04-21 20:50 57.75529 -173.93832 35615 ft 462 kts 255°
2026-04-21 20:50 57.74591 -174.05758 35593 ft 465 kts 254°
2026-04-21 20:51 57.73700 -174.17711 35605 ft 466 kts 257°
2026-04-21 20:51 57.73062 -174.29796 35596 ft 468 kts 259°
2026-04-21 20:52 57.72511 -174.41864 35602 ft 468 kts 259°
2026-04-21 20:52 57.71940 -174.54008 35601 ft 468 kts 259°
2026-04-21 20:53 57.71344 -174.66121 35594 ft 469 kts 258°
2026-04-21 20:53 57.70732 -174.78224 35574 ft 470 kts 257°
2026-04-21 20:54 57.70102 -174.90444 35570 ft 470 kts 257°
2026-04-21 20:54 57.69466 -175.02513 35575 ft 470 kts 258°
2026-04-21 20:55 57.68817 -175.14656 35571 ft 470 kts 258°
2026-04-21 20:55 57.68153 -175.26831 35576 ft 471 kts 257°
2026-04-21 20:56 57.67478 -175.39010 35571 ft 472 kts 257°
2026-04-21 20:56 57.66790 -175.51220 35569 ft 472 kts 259°
2026-04-21 20:57 57.66094 -175.63367 35570 ft 472 kts 258°
2026-04-21 20:57 57.65357 -175.75502 35570 ft 471 kts 256°
2026-04-21 20:58 57.64578 -175.87594 35572 ft 473 kts 257°
2026-04-21 20:58 57.63819 -175.99806 35546 ft 474 kts 256°
2026-04-21 20:59 57.63071 -176.11999 35544 ft 473 kts 258°
2026-04-21 20:59 57.62313 -176.24209 35545 ft 473 kts 256°
2026-04-21 21:00 57.61540 -176.36405 35546 ft 473 kts 257°
2026-04-21 21:00 57.60264 -176.48292 35557 ft 468 kts 247°
2026-04-21 21:01 57.58285 -176.59891 35551 ft 469 kts 244°
2026-04-21 21:01 57.56245 -176.71402 35554 ft 470 kts 246°
2026-04-21 21:02 57.54246 -176.82986 35528 ft 471 kts 246°
2026-04-21 21:02 57.52271 -176.94536 35534 ft 470 kts 247°
2026-04-21 21:03 57.50276 -177.06161 35541 ft 473 kts 245°
2026-04-21 21:03 57.48264 -177.17795 35533 ft 474 kts 245°
2026-04-21 21:04 57.46235 -177.29458 35534 ft 475 kts 245°
2026-04-21 21:04 57.44207 -177.41038 35514 ft 474 kts 245°
2026-04-21 21:05 57.42154 -177.52666 35515 ft 474 kts 246°
2026-04-21 21:05 57.40086 -177.64312 35532 ft 475 kts 245°
2026-04-21 21:06 57.38017 -177.75900 35517 ft 476 kts 246°
2026-04-21 21:06 57.35918 -177.87590 35496 ft 477 kts 246°
2026-04-21 21:07 57.33756 -177.99201 35487 ft 480 kts 245°
2026-04-21 21:07 57.31578 -178.10932 35506 ft 481 kts 244°
2026-04-21 21:08 57.29431 -178.22620 35512 ft 482 kts 244°
2026-04-21 21:08 57.27279 -178.34300 35510 ft 485 kts 245°
2026-04-21 21:09 57.25088 -178.46128 35480 ft 484 kts 246°
2026-04-21 21:09 57.22909 -178.57808 35486 ft 484 kts 246°
2026-04-21 21:10 57.20711 -178.69520 35484 ft 484 kts 244°
2026-04-21 21:10 57.18494 -178.81246 35485 ft 484 kts 246°
2026-04-21 21:11 57.16263 -178.92978 35499 ft 486 kts 244°
2026-04-21 21:11 57.14030 -179.04652 35469 ft 486 kts 244°
2026-04-21 21:12 57.11768 -179.16424 35479 ft 487 kts 244°
2026-04-21 21:12 57.09888 -179.26149 35485 ft 488 kts 245°
2026-04-21 21:13 57.07182 -179.39851 35489 ft 490 kts 244°
2026-04-21 21:13 57.04825 -179.51599 35463 ft 491 kts 243°
2026-04-21 21:14 57.02493 -179.63320 35475 ft 490 kts 245°
2026-04-21 21:14 57.00157 -179.75104 35475 ft 490 kts 245°
2026-04-21 21:15 56.97813 -179.86873 35474 ft 490 kts 243°
2026-04-21 21:15 56.95478 -179.98510 35486 ft 490 kts 245°
2026-04-21 21:16 56.93096 179.89700 35437 ft 493 kts 245°
2026-04-21 21:16 56.90727 179.78005 35429 ft 495 kts 243°
2026-04-21 21:17 56.88316 179.66227 35464 ft 493 kts 245°
2026-04-21 21:17 56.85906 179.54487 35468 ft 495 kts 245°
2026-04-21 21:18 56.83891 179.44737 35455 ft 492 kts 245°
2026-04-21 21:18 56.81446 179.32972 35455 ft 495 kts 244°
2026-04-21 21:19 56.78969 179.21180 35458 ft 500 kts 243°
2026-04-21 21:19 56.76431 179.09421 35459 ft 498 kts 244°
2026-04-21 21:20 56.73934 178.97715 35491 ft 500 kts 243°
2026-04-21 21:20 56.71429 178.85953 35448 ft 500 kts 243°
2026-04-21 21:21 56.68907 178.74165 35468 ft 504 kts 243°
2026-04-21 21:21 56.66363 178.62333 35468 ft 503 kts 244°
2026-04-21 21:22 56.63777 178.50532 35475 ft 500 kts 242°
2026-04-21 21:22 56.61165 178.38986 35451 ft 495 kts 243°
2026-04-21 21:23 56.58548 178.27389 35468 ft 498 kts 241°
2026-04-21 21:23 56.55906 178.15690 35467 ft 500 kts 242°
2026-04-21 21:24 56.53262 178.04068 35478 ft 498 kts 244°
2026-04-21 21:24 56.50627 177.92535 35478 ft 495 kts 244°
2026-04-21 21:25 56.47982 177.80995 35470 ft 496 kts 244°
2026-04-21 21:25 56.45329 177.69498 35473 ft 496 kts 244°
2026-04-21 21:26 56.42658 177.57986 35487 ft 501 kts 244°
2026-04-21 21:26 56.39971 177.46502 35494 ft 496 kts 244°
2026-04-21 21:27 56.37265 177.34949 35493 ft 505 kts 242°
2026-04-21 21:27 56.34510 177.23303 35502 ft 505 kts 242°
2026-04-21 21:28 56.31747 177.11836 35509 ft 497 kts 243°
2026-04-21 21:29 56.27598 176.94705 35522 ft 497 kts 244°
2026-04-21 21:29 56.24854 176.83265 35498 ft 505 kts 242°
2026-04-21 21:30 56.22026 176.71577 35512 ft 509 kts 243°
2026-04-21 21:30 56.19221 176.60044 35513 ft 505 kts 242°
2026-04-21 21:31 56.16396 176.48466 35527 ft 508 kts 242°
2026-04-21 21:31 56.13557 176.36909 35503 ft 508 kts 242°
2026-04-21 21:32 56.10702 176.25338 35516 ft 509 kts 242°
2026-04-21 21:32 56.07827 176.13754 35517 ft 511 kts 242°
2026-04-21 21:33 56.04936 176.02181 35535 ft 508 kts 243°
2026-04-21 21:33 56.02086 175.90834 35524 ft 496 kts 244°
2026-04-21 21:34 55.99271 175.79679 35523 ft 499 kts 242°
2026-04-21 21:34 55.96329 175.68385 35544 ft 497 kts 244°
2026-04-21 21:35 55.93457 175.57215 35538 ft 497 kts 243°
2026-04-21 21:35 55.90593 175.45955 35534 ft 503 kts 242°
2026-04-21 21:36 55.87678 175.34622 35535 ft 501 kts 243°
2026-04-21 21:36 55.84790 175.23451 35542 ft 503 kts 243°
2026-04-21 21:37 55.81848 175.12109 35542 ft 505 kts 242°
2026-04-21 21:37 55.78876 175.00799 35555 ft 498 kts 243°
2026-04-21 21:38 55.75959 174.89685 35544 ft 496 kts 243°
2026-04-21 21:38 55.73060 174.78662 35554 ft 497 kts 243°
2026-04-21 21:39 55.70099 174.67453 35556 ft 502 kts 243°
2026-04-21 21:39 55.67131 174.56343 35557 ft 502 kts 242°
2026-04-21 21:40 55.64127 174.45149 35544 ft 506 kts 242°
2026-04-21 21:40 55.61057 174.33986 35553 ft 504 kts 243°
2026-04-21 21:41 55.57999 174.22803 35555 ft 501 kts 243°
2026-04-21 21:41 55.54999 174.11834 35565 ft 497 kts 244°
2026-04-21 21:42 55.52005 174.00812 35553 ft 496 kts 243°
2026-04-21 21:42 55.49034 173.89943 35561 ft 495 kts 243°
2026-04-21 21:43 55.46028 173.79029 35563 ft 496 kts 243°
2026-04-21 21:43 55.43009 173.68126 35573 ft 496 kts 243°
2026-04-21 21:44 55.39978 173.57234 35564 ft 496 kts 243°
2026-04-21 21:44 55.36929 173.46325 35576 ft 496 kts 243°
2026-04-21 21:45 55.33886 173.35494 35598 ft 497 kts 243°
2026-04-21 21:45 55.30812 173.24602 35589 ft 499 kts 243°
2026-04-21 21:46 55.27701 173.13678 35590 ft 500 kts 243°
2026-04-21 21:46 55.24552 173.02837 35591 ft 503 kts 243°
2026-04-21 21:47 55.21366 172.91818 35602 ft 511 kts 243°
2026-04-21 21:47 55.18174 172.80720 35600 ft 513 kts 243°
2026-04-21 21:48 55.14957 172.69570 35605 ft 513 kts 243°
2026-04-21 21:48 55.11743 172.58495 35603 ft 512 kts 243°
2026-04-21 21:49 55.08516 172.47418 35616 ft 509 kts 243°
2026-04-21 21:49 55.05292 172.36431 35613 ft 510 kts 242°
2026-04-21 21:50 55.02032 172.25387 35622 ft 512 kts 243°
2026-04-21 21:50 54.98815 172.14509 35614 ft 504 kts 243°
2026-04-21 21:51 54.95582 172.03698 35625 ft 503 kts 240°
2026-04-21 21:51 54.91546 171.93722 35624 ft 506 kts 230°
2026-04-21 21:52 54.86993 171.84334 35624 ft 511 kts 229°
2026-04-21 21:52 54.82442 171.74967 35626 ft 508 kts 230°
2026-04-21 21:53 54.77962 171.65556 35639 ft 505 kts 230°
2026-04-21 21:53 54.73503 171.56144 35625 ft 510 kts 230°
2026-04-21 21:54 54.68969 171.46611 35646 ft 509 kts 230°
2026-04-21 21:54 54.64475 171.37206 35632 ft 505 kts 230°
2026-04-21 21:55 54.59977 171.27831 35648 ft 510 kts 230°
2026-04-21 21:55 54.55479 171.18494 35760 ft 514 kts 230°
2026-04-21 21:55 54.53191 171.13761 35889 ft 512 kts 230°
2026-04-21 21:56 54.50919 171.09066 36001 ft 510 kts 230°
2026-04-21 21:56 54.48648 171.04385 36136 ft 507 kts 230°
2026-04-21 21:56 54.46400 170.99757 36250 ft 503 kts 230°
2026-04-21 21:56 54.44151 170.95137 36381 ft 507 kts 230°
2026-04-21 21:57 54.41879 170.90489 36513 ft 506 kts 230°
2026-04-21 21:57 54.39593 170.85868 36621 ft 508 kts 230°
2026-04-21 21:57 54.37335 170.81317 36750 ft 509 kts 230°
2026-04-21 21:57 54.35054 170.76712 36892 ft 505 kts 231°
2026-04-21 21:58 54.32783 170.72116 37023 ft 505 kts 230°
2026-04-21 21:58 54.30522 170.67532 37155 ft 501 kts 230°
2026-04-21 21:58 54.28274 170.62977 37274 ft 503 kts 231°
2026-04-21 21:58 54.26014 170.58399 37415 ft 504 kts 230°
2026-04-21 21:59 54.23749 170.53820 37549 ft 506 kts 231°
2026-04-21 21:59 54.19194 170.44648 37655 ft 502 kts 231°
2026-04-21 22:00 54.14701 170.35631 37666 ft 500 kts 230°
2026-04-21 22:00 54.10185 170.26607 37675 ft 502 kts 231°
2026-04-21 22:01 54.05652 170.17578 37683 ft 504 kts 231°
2026-04-21 22:01 54.01102 170.08546 37672 ft 502 kts 231°
2026-04-21 22:02 53.96601 169.99644 37685 ft 498 kts 230°
2026-04-21 22:02 53.92065 169.90711 37675 ft 500 kts 231°
2026-04-21 22:03 53.87503 169.81773 37690 ft 502 kts 230°
2026-04-21 22:03 53.82902 169.72888 37694 ft 500 kts 230°
2026-04-21 22:04 53.78371 169.64116 37690 ft 500 kts 231°
2026-04-21 22:04 53.73804 169.55257 37680 ft 501 kts 231°
2026-04-21 22:05 53.69231 169.46407 37685 ft 498 kts 231°
2026-04-21 22:05 53.64668 169.37603 37685 ft 498 kts 230°
2026-04-21 22:06 53.60537 169.28417 37702 ft 495 kts 240°
2026-04-21 22:06 53.57288 169.18295 37695 ft 490 kts 244°
2026-04-21 22:07 53.54171 169.08073 37702 ft 491 kts 244°
2026-04-21 22:07 53.50971 168.97947 37717 ft 491 kts 243°
2026-04-21 22:08 53.47744 168.87926 37716 ft 491 kts 243°
2026-04-21 22:08 53.44505 168.77857 37732 ft 489 kts 243°
2026-04-21 22:09 53.41242 168.67817 37734 ft 494 kts 244°
2026-04-21 22:09 53.37926 168.57691 37732 ft 495 kts 244°
2026-04-21 22:10 53.34607 168.47588 37736 ft 495 kts 244°
2026-04-21 22:10 53.31306 168.37571 37756 ft 492 kts 243°
2026-04-21 22:11 53.27987 168.27588 37752 ft 493 kts 243°
2026-04-21 22:11 53.24620 168.17598 37763 ft 492 kts 243°
2026-04-21 22:12 53.21282 168.07628 37769 ft 493 kts 244°
2026-04-21 22:12 53.17946 167.97708 37778 ft 494 kts 244°
2026-04-21 22:13 53.14577 167.87729 37792 ft 494 kts 244°
2026-04-21 22:13 53.11201 167.77762 37785 ft 493 kts 244°
2026-04-21 22:14 53.07832 167.67857 37797 ft 491 kts 244°
2026-04-21 22:14 53.04494 167.58080 37799 ft 489 kts 244°
2026-04-21 22:15 53.01127 167.48250 37812 ft 489 kts 244°
2026-04-21 22:15 52.97750 167.38443 37813 ft 489 kts 243°
2026-04-21 22:16 52.94372 167.28670 37820 ft 490 kts 242°
2026-04-21 22:16 52.90997 167.18916 37816 ft 487 kts 243°
2026-04-21 22:17 52.87587 167.09228 37832 ft 488 kts 242°
2026-04-21 22:17 52.84189 166.99626 37831 ft 486 kts 242°
2026-04-21 22:18 52.80778 166.89952 37839 ft 488 kts 242°
2026-04-21 22:18 52.77374 166.80289 37830 ft 486 kts 243°
2026-04-21 22:19 52.73971 166.70673 37841 ft 484 kts 244°
2026-04-21 22:19 52.70607 166.61180 37857 ft 483 kts 243°
2026-04-21 22:20 52.67212 166.51639 37859 ft 481 kts 242°
2026-04-21 22:20 52.63810 166.42109 37869 ft 483 kts 242°
2026-04-21 22:21 52.60386 166.32606 37860 ft 482 kts 241°
2026-04-21 22:21 52.56993 166.23208 37876 ft 481 kts 242°
2026-04-21 22:22 52.53576 166.13763 37869 ft 481 kts 241°
2026-04-21 22:22 52.50149 166.04326 37880 ft 481 kts 242°
2026-04-21 22:23 52.46697 165.94927 37874 ft 480 kts 242°
2026-04-21 22:23 52.43269 165.85649 37891 ft 479 kts 241°
2026-04-21 22:24 52.39803 165.76317 37903 ft 479 kts 243°
2026-04-21 22:24 52.36393 165.67028 37903 ft 476 kts 242°
2026-04-21 22:25 52.32982 165.57778 37910 ft 474 kts 241°
2026-04-21 22:25 52.29557 165.48574 37909 ft 477 kts 241°
2026-04-21 22:26 52.26102 165.39307 37917 ft 479 kts 239°
2026-04-21 22:26 52.22617 165.30066 37913 ft 476 kts 243°
2026-04-21 22:27 52.19181 165.20858 37916 ft 474 kts 242°
2026-04-21 22:27 52.15720 165.11658 37916 ft 476 kts 242°
2026-04-21 22:28 52.12267 165.02542 37921 ft 476 kts 243°
2026-04-21 22:28 52.08789 164.93377 37922 ft 478 kts 242°
2026-04-21 22:29 52.05293 164.84221 37930 ft 476 kts 242°
2026-04-21 22:29 52.01803 164.75123 37942 ft 477 kts 240°
2026-04-21 22:30 51.98288 164.66084 37926 ft 477 kts 240°
2026-04-21 22:30 51.94756 164.56995 37946 ft 473 kts 240°
2026-04-21 22:31 51.91233 164.47907 37942 ft 472 kts 243°
2026-04-21 22:31 51.87785 164.38937 37961 ft 475 kts 240°
2026-04-21 22:32 51.84244 164.29872 37953 ft 473 kts 240°
2026-04-21 22:32 51.80727 164.20848 37953 ft 474 kts 240°
2026-04-21 22:33 51.77195 164.11842 37957 ft 474 kts 240°
2026-04-21 22:33 51.73655 164.02846 37972 ft 475 kts 240°
2026-04-21 22:34 51.70103 163.93861 37972 ft 476 kts 240°
2026-04-21 22:34 51.66575 163.84954 37976 ft 473 kts 240°
2026-04-21 22:35 51.63037 163.76045 37967 ft 470 kts 240°
2026-04-21 22:35 51.59517 163.67172 37979 ft 470 kts 240°
2026-04-21 22:36 51.54168 163.53928 37985 ft 470 kts 240°
2026-04-21 22:36 51.50611 163.45121 37985 ft 470 kts 240°
2026-04-21 22:37 51.47058 163.36334 37984 ft 468 kts 240°
2026-04-21 22:37 51.43527 163.27627 37996 ft 468 kts 240°
2026-04-21 22:38 51.39969 163.18883 37996 ft 468 kts 240°
2026-04-21 22:38 51.36406 163.10156 37999 ft 468 kts 240°
2026-04-21 22:39 51.32835 163.01440 37992 ft 467 kts 240°
2026-04-21 22:39 51.29269 162.92789 38004 ft 466 kts 240°
2026-04-21 22:40 51.25686 162.84167 37992 ft 466 kts 240°
2026-04-21 22:40 51.22134 162.75603 38011 ft 463 kts 240°
2026-04-21 22:41 51.18575 162.67017 38014 ft 463 kts 240°
2026-04-21 22:41 51.15021 162.58468 38003 ft 461 kts 240°
2026-04-21 22:42 51.11477 162.49973 38006 ft 461 kts 240°
2026-04-21 22:42 51.07943 162.41528 38008 ft 461 kts 240°
2026-04-21 22:43 51.04383 162.33048 38015 ft 461 kts 240°
2026-04-21 22:43 51.00816 162.24582 37990 ft 461 kts 240°
2026-04-21 22:44 50.97246 162.16137 38016 ft 460 kts 240°
2026-04-21 22:44 50.93675 162.07716 38017 ft 460 kts 240°
2026-04-21 22:45 50.90120 161.99358 38022 ft 460 kts 240°
2026-04-21 22:45 50.86535 161.90961 38008 ft 459 kts 239°
2026-04-21 22:46 50.82944 161.82617 38022 ft 458 kts 239°
2026-04-21 22:46 50.79332 161.74319 38023 ft 457 kts 239°
2026-04-21 22:47 50.75760 161.66075 38028 ft 457 kts 239°
2026-04-21 22:47 50.72165 161.57764 38029 ft 457 kts 239°
2026-04-21 22:48 50.68570 161.49472 38027 ft 457 kts 239°
2026-04-21 22:48 50.64995 161.41253 38036 ft 457 kts 239°
2026-04-21 22:49 50.61395 161.33004 38036 ft 457 kts 239°
2026-04-21 22:49 50.57771 161.24726 38037 ft 457 kts 239°
2026-04-21 22:50 50.54162 161.16508 38033 ft 457 kts 239°
2026-04-21 22:50 50.50536 161.08277 38028 ft 457 kts 238°
2026-04-21 22:51 50.46936 161.00130 38030 ft 456 kts 238°
2026-04-21 22:51 50.43306 160.91946 38037 ft 455 kts 238°
2026-04-21 22:52 50.39685 160.83803 38034 ft 455 kts 238°
2026-04-21 22:52 50.36057 160.75699 38037 ft 455 kts 238°
2026-04-21 22:53 50.32402 160.67637 38036 ft 455 kts 237°
2026-04-21 22:53 50.28743 160.59534 38035 ft 455 kts 238°
2026-04-21 22:54 50.25115 160.51484 38037 ft 454 kts 238°
2026-04-21 22:54 50.21475 160.43421 38037 ft 454 kts 238°
2026-04-21 22:55 50.17817 160.35382 38030 ft 454 kts 237°
2026-04-21 22:55 50.14756 160.28705 38036 ft 454 kts 237°
2026-04-21 22:56 50.11088 160.20708 38034 ft 454 kts 237°
2026-04-21 22:56 50.07418 160.12717 38033 ft 452 kts 237°
2026-04-21 22:57 50.03765 160.04784 38030 ft 451 kts 237°
2026-04-21 22:57 50.00123 159.96897 38029 ft 450 kts 236°
2026-04-21 22:58 49.96452 159.88974 38034 ft 450 kts 236°
2026-04-21 22:58 49.92806 159.81128 38034 ft 450 kts 236°
2026-04-21 22:59 49.89149 159.73279 38031 ft 450 kts 236°
2026-04-21 22:59 49.85457 159.65382 38031 ft 450 kts 236°
2026-04-21 23:00 49.81788 159.57558 38035 ft 449 kts 235°
2026-04-21 23:00 49.78109 159.49734 38034 ft 450 kts 235°
2026-04-21 23:01 49.74424 159.41920 38031 ft 450 kts 235°
2026-04-21 23:01 49.70722 159.34134 38033 ft 450 kts 234°
2026-04-21 23:02 49.66941 159.26430 38030 ft 450 kts 234°
2026-04-21 23:02 49.63157 159.18738 38031 ft 450 kts 234°
2026-04-21 23:03 49.59365 159.11005 38032 ft 450 kts 234°
2026-04-21 23:03 49.55594 159.03323 38029 ft 450 kts 234°
2026-04-21 23:04 49.51807 158.95629 38028 ft 450 kts 234°
2026-04-21 23:04 49.48020 158.87957 38023 ft 450 kts 233°
2026-04-21 23:05 49.44244 158.80330 38025 ft 450 kts 233°
2026-04-21 23:05 49.40453 158.72697 38023 ft 450 kts 233°
2026-04-21 23:06 49.36641 158.65040 38018 ft 450 kts 233°
2026-04-21 23:06 49.32830 158.57409 38014 ft 450 kts 232°
2026-04-21 23:07 49.29053 158.49867 38018 ft 447 kts 232°
2026-04-21 23:07 49.25270 158.42336 38018 ft 447 kts 232°
2026-04-21 23:08 49.21454 158.34762 38018 ft 447 kts 232°
2026-04-21 23:08 49.17638 158.27291 38016 ft 447 kts 231°
2026-04-21 23:09 49.13824 158.19824 38010 ft 448 kts 231°
2026-04-21 23:09 49.09993 158.12298 38003 ft 449 kts 231°
2026-04-21 23:10 49.06157 158.04768 38001 ft 449 kts 231°
2026-04-21 23:10 49.02315 157.97245 37998 ft 449 kts 231°
2026-04-21 23:11 48.98478 157.89755 37998 ft 449 kts 231°
2026-04-21 23:11 48.94642 157.82289 37989 ft 449 kts 231°
2026-04-21 23:12 48.90800 157.74830 37986 ft 449 kts 231°
2026-04-21 23:12 48.86949 157.67377 37987 ft 448 kts 231°
2026-04-21 23:13 48.83086 157.59920 37998 ft 448 kts 230°
2026-04-21 23:13 48.79198 157.52437 37980 ft 450 kts 230°
2026-04-21 23:14 48.75317 157.44989 37969 ft 452 kts 230°
2026-04-21 23:14 48.71429 157.37543 37972 ft 454 kts 230°
2026-04-21 23:15 48.67520 157.30128 37960 ft 449 kts 229°
2026-04-21 23:15 48.63614 157.22777 37962 ft 449 kts 230°
2026-04-21 23:16 48.59730 157.15419 37953 ft 450 kts 229°
2026-04-21 23:16 48.55856 157.08081 37950 ft 447 kts 229°
2026-04-21 23:17 48.51978 157.00774 37934 ft 444 kts 229°
2026-04-21 23:17 48.48072 156.93427 37931 ft 444 kts 230°
2026-04-21 23:18 48.44194 156.86140 37934 ft 452 kts 230°
2026-04-21 23:18 48.40261 156.78770 37913 ft 446 kts 229°
2026-04-21 23:19 48.36325 156.71426 37919 ft 454 kts 229°
2026-04-21 23:19 48.32391 156.64137 37909 ft 452 kts 229°
2026-04-21 23:20 48.28362 156.56781 37907 ft 456 kts 229°
2026-04-21 23:20 48.24363 156.49467 37900 ft 451 kts 227°
2026-04-21 23:21 48.20413 156.42274 37890 ft 451 kts 229°
2026-04-21 23:21 48.16416 156.34982 37886 ft 451 kts 229°
2026-04-21 23:22 48.12455 156.27777 37883 ft 446 kts 228°
2026-04-21 23:22 48.08520 156.20643 37884 ft 444 kts 227°
2026-04-21 23:23 48.04594 156.13559 37869 ft 444 kts 230°
2026-04-21 23:23 48.00630 156.06389 37873 ft 446 kts 228°
2026-04-21 23:24 47.96718 155.99367 37874 ft 442 kts 228°
2026-04-21 23:24 47.92720 155.92209 37846 ft 452 kts 229°
2026-04-21 23:25 47.88680 155.84962 37853 ft 452 kts 228°
2026-04-21 23:25 47.84695 155.77843 37841 ft 452 kts 228°
2026-04-21 23:26 47.80727 155.70799 37830 ft 441 kts 228°
2026-04-21 23:26 47.76713 155.63748 37830 ft 449 kts 227°
2026-04-21 23:27 47.72724 155.56724 37808 ft 443 kts 227°
2026-04-21 23:27 47.68772 155.49761 37808 ft 443 kts 227°
2026-04-21 23:28 47.64825 155.42825 37793 ft 440 kts 227°
2026-04-21 23:28 47.60831 155.35803 37815 ft 446 kts 227°
2026-04-21 23:29 47.56838 155.28804 37769 ft 440 kts 227°
2026-04-21 23:29 47.52867 155.21885 37781 ft 444 kts 227°
2026-04-21 23:30 47.48841 155.14869 37766 ft 452 kts 227°
2026-04-21 23:30 47.44767 155.07756 37773 ft 452 kts 226°
2026-04-21 23:31 47.40734 155.00755 37748 ft 441 kts 228°
2026-04-21 23:31 47.36762 154.93909 37745 ft 442 kts 226°
2026-04-21 23:32 47.32725 154.86941 37738 ft 445 kts 226°
2026-04-21 23:32 47.28734 154.80072 37727 ft 442 kts 226°
2026-04-21 23:33 47.24697 154.73197 37724 ft 443 kts 226°
2026-04-21 23:33 47.20665 154.66365 37721 ft 443 kts 226°
2026-04-21 23:34 47.16638 154.59502 37710 ft 446 kts 226°
2026-04-21 23:34 47.12608 154.52653 37712 ft 445 kts 226°
2026-04-21 23:35 47.08532 154.45719 37706 ft 447 kts 225°
2026-04-21 23:35 47.04461 154.38829 37704 ft 449 kts 226°
2026-04-21 23:36 47.00351 154.31873 37684 ft 448 kts 227°
2026-04-21 23:36 46.96276 154.25008 37676 ft 444 kts 224°
2026-04-21 23:37 46.92219 154.18196 37688 ft 448 kts 225°
2026-04-21 23:37 46.88135 154.11336 37671 ft 447 kts 226°
2026-04-21 23:38 46.84051 154.04500 37670 ft 445 kts 226°
2026-04-21 23:38 46.79993 153.97740 37652 ft 445 kts 226°
2026-04-21 23:39 46.75897 153.90931 37672 ft 447 kts 226°
2026-04-21 23:39 46.71794 153.84124 37658 ft 447 kts 226°
2026-04-21 23:40 46.67637 153.77327 37638 ft 451 kts 226°
2026-04-21 23:40 46.63441 153.70428 37631 ft 456 kts 226°
2026-04-21 23:41 46.59268 153.63535 37649 ft 453 kts 226°
2026-04-21 23:41 46.55092 153.56646 37631 ft 452 kts 226°
2026-04-21 23:42 46.50926 153.49837 37617 ft 450 kts 228°
2026-04-21 23:42 46.46747 153.42993 37631 ft 454 kts 226°
2026-04-21 23:43 46.43284 153.37351 37621 ft 448 kts 227°
2026-04-21 23:43 46.39094 153.30535 37622 ft 455 kts 227°
2026-04-21 23:44 46.34877 153.23689 37613 ft 455 kts 227°
2026-04-21 23:44 46.30658 153.16861 37618 ft 456 kts 227°
2026-04-21 23:45 46.24332 153.06648 37620 ft 453 kts 228°
2026-04-21 23:46 46.20117 152.99861 37630 ft 452 kts 228°
2026-04-21 23:46 46.15868 152.93056 37633 ft 457 kts 227°
2026-04-21 23:47 46.11592 152.86271 37644 ft 459 kts 227°
2026-04-21 23:47 46.07391 152.79588 37665 ft 449 kts 228°
2026-04-21 23:48 46.03218 152.72941 37663 ft 448 kts 228°
2026-04-21 23:48 45.99006 152.66246 37665 ft 453 kts 228°
2026-04-21 23:49 45.94814 152.59600 37661 ft 446 kts 228°
2026-04-21 23:49 45.90643 152.53001 37669 ft 444 kts 228°
2026-04-21 23:50 45.86475 152.46421 37694 ft 450 kts 228°
2026-04-21 23:50 45.82237 152.39746 37679 ft 452 kts 228°
2026-04-21 23:51 45.78012 152.33115 37686 ft 451 kts 228°
2026-04-21 23:51 45.73754 152.26443 37705 ft 452 kts 228°
2026-04-21 23:52 45.69525 152.19833 37700 ft 453 kts 229°
2026-04-21 23:52 45.65258 152.13181 37700 ft 453 kts 229°
2026-04-21 23:53 45.61002 152.06567 37698 ft 453 kts 228°
2026-04-21 23:53 45.56722 151.99988 37712 ft 453 kts 228°
2026-04-21 23:54 45.52450 151.93415 37713 ft 453 kts 228°
2026-04-21 23:54 45.48183 151.86835 37711 ft 452 kts 228°
2026-04-21 23:55 45.43904 151.80243 37719 ft 451 kts 228°
2026-04-21 23:55 45.39641 151.73692 37717 ft 451 kts 229°
2026-04-21 23:56 45.35377 151.67155 37722 ft 451 kts 229°
2026-04-21 23:56 45.31131 151.60661 37726 ft 451 kts 229°
2026-04-21 23:57 45.26863 151.54149 37728 ft 451 kts 229°
2026-04-21 23:57 45.22572 151.47617 37736 ft 450 kts 229°
2026-04-21 23:58 45.18299 151.41129 37728 ft 450 kts 229°
2026-04-21 23:58 45.14036 151.34671 37723 ft 450 kts 229°
2026-04-21 23:59 45.09754 151.28203 37732 ft 449 kts 229°
2026-04-21 23:59 45.05502 151.21791 37740 ft 447 kts 229°
2026-04-22 00:00 45.01224 151.15401 37731 ft 447 kts 229°
2026-04-22 00:00 44.96960 151.09048 37741 ft 446 kts 229°
2026-04-22 00:01 44.92693 151.02673 37746 ft 446 kts 229°
2026-04-22 00:01 44.88430 150.96305 37742 ft 444 kts 229°
2026-04-22 00:02 44.84194 150.89994 37747 ft 443 kts 229°
2026-04-22 00:02 44.79973 150.83716 37745 ft 443 kts 229°
2026-04-22 00:03 44.75729 150.77418 37740 ft 442 kts 229°
2026-04-22 00:03 44.71493 150.71150 37742 ft 440 kts 229°
2026-04-22 00:04 44.67296 150.64952 37749 ft 439 kts 229°
2026-04-22 00:04 44.63070 150.58725 37749 ft 439 kts 229°
2026-04-22 00:05 44.58865 150.52542 37754 ft 439 kts 229°
2026-04-22 00:05 44.54648 150.46357 37755 ft 439 kts 229°
2026-04-22 00:06 44.50436 150.40194 37754 ft 439 kts 229°
2026-04-22 00:06 44.46188 150.34002 37765 ft 439 kts 229°
2026-04-22 00:07 44.41960 150.27898 37763 ft 439 kts 229°
2026-04-22 00:07 44.37716 150.21761 37755 ft 438 kts 230°
2026-04-22 00:08 44.33511 150.15667 37765 ft 436 kts 230°
2026-04-22 00:08 44.29288 150.09552 37772 ft 436 kts 230°
2026-04-22 00:09 44.25080 150.03473 37768 ft 435 kts 230°
2026-04-22 00:09 44.20884 149.97428 37773 ft 434 kts 230°
2026-04-22 00:10 44.16696 149.91407 37776 ft 433 kts 230°
2026-04-22 00:10 44.12482 149.85360 37774 ft 433 kts 230°
2026-04-22 00:11 44.08308 149.79386 37769 ft 433 kts 230°
2026-04-22 00:11 44.04092 149.73363 37777 ft 432 kts 230°
2026-04-22 00:12 43.99911 149.67405 37779 ft 429 kts 230°
2026-04-22 00:12 43.95767 149.61511 37784 ft 428 kts 230°
2026-04-22 00:13 43.91576 149.55563 37786 ft 428 kts 230°
2026-04-22 00:13 43.87408 149.49681 37790 ft 429 kts 230°
2026-04-22 00:14 43.83222 149.43816 37788 ft 429 kts 230°
2026-04-22 00:14 43.79048 149.37951 37790 ft 428 kts 230°
2026-04-22 00:15 43.74870 149.32075 37793 ft 428 kts 230°
2026-04-22 00:15 43.70701 149.26224 37795 ft 426 kts 230°
2026-04-22 00:16 43.66528 149.20376 37795 ft 425 kts 230°
2026-04-22 00:16 43.62408 149.14615 37795 ft 421 kts 230°
2026-04-22 00:17 43.58284 149.08860 37800 ft 420 kts 230°
2026-04-22 00:17 43.54206 149.03184 37800 ft 417 kts 231°
2026-04-22 00:18 43.50133 148.97523 37804 ft 416 kts 231°
2026-04-22 00:18 43.46074 148.91892 37804 ft 415 kts 230°
2026-04-22 00:19 43.41998 148.86249 37810 ft 415 kts 230°
2026-04-22 00:19 43.37919 148.80616 37810 ft 414 kts 230°
2026-04-22 00:20 43.33851 148.75009 37813 ft 414 kts 230°
2026-04-22 00:20 43.29792 148.69435 37791 ft 413 kts 230°
2026-04-22 00:21 43.25747 148.63934 37814 ft 409 kts 231°
2026-04-22 00:21 43.21720 148.58444 37814 ft 405 kts 231°
2026-04-22 00:22 43.17730 148.52993 37819 ft 405 kts 231°
2026-04-22 00:22 43.13764 148.47578 37822 ft 404 kts 231°
2026-04-22 00:23 43.09756 148.42118 37821 ft 404 kts 231°
2026-04-22 00:23 43.05778 148.36711 37816 ft 403 kts 231°
2026-04-22 00:24 43.01808 148.31325 37815 ft 403 kts 231°
2026-04-22 00:24 42.97817 148.25919 37821 ft 403 kts 231°
2026-04-22 00:25 42.93845 148.20551 37779 ft 403 kts 231°
2026-04-22 00:25 42.89855 148.15169 37816 ft 402 kts 231°
2026-04-22 00:26 42.85880 148.09817 37821 ft 402 kts 231°
2026-04-22 00:26 42.81904 148.04473 37819 ft 402 kts 231°
2026-04-22 00:27 42.77933 147.99148 37818 ft 402 kts 231°
2026-04-22 00:27 42.73952 147.93820 37817 ft 403 kts 231°
2026-04-22 00:28 42.69941 147.88476 37820 ft 403 kts 231°
2026-04-22 00:28 42.65910 147.83146 37821 ft 403 kts 231°
2026-04-22 00:29 42.61909 147.77842 37813 ft 403 kts 231°
2026-04-22 00:29 42.57893 147.72512 37785 ft 404 kts 232°
2026-04-22 00:30 42.53866 147.67171 37832 ft 404 kts 232°
2026-04-22 00:30 42.49864 147.61875 37812 ft 404 kts 232°
2026-04-22 00:31 42.45833 147.56554 37813 ft 404 kts 232°
2026-04-22 00:31 42.41801 147.51239 37825 ft 405 kts 233°
2026-04-22 00:32 42.38483 147.46752 37823 ft 404 kts 234°
2026-04-22 00:32 42.34475 147.41388 37823 ft 406 kts 233°
2026-04-22 00:33 42.30422 147.36123 37814 ft 406 kts 233°
2026-04-22 00:33 42.26340 147.30834 37825 ft 406 kts 233°
2026-04-22 00:34 42.22281 147.25573 37819 ft 406 kts 233°
2026-04-22 00:34 42.18197 147.20285 37816 ft 406 kts 233°
2026-04-22 00:35 42.14123 147.15017 37818 ft 406 kts 233°
2026-04-22 00:35 42.10044 147.09756 37822 ft 406 kts 233°
2026-04-22 00:36 42.05959 147.04494 37825 ft 406 kts 233°
2026-04-22 00:36 42.01880 146.99253 37825 ft 406 kts 233°
2026-04-22 00:37 41.97789 146.94004 37819 ft 406 kts 233°
2026-04-22 00:37 41.93727 146.88784 37818 ft 406 kts 233°
2026-04-22 00:38 41.89637 146.83529 37823 ft 406 kts 233°
2026-04-22 00:38 41.85573 146.78310 37825 ft 405 kts 234°
2026-04-22 00:39 41.81523 146.73112 37832 ft 405 kts 234°
2026-04-22 00:39 41.77463 146.67915 37824 ft 402 kts 234°
2026-04-22 00:40 41.73409 146.62728 37834 ft 402 kts 234°
2026-04-22 00:40 41.69359 146.57556 37836 ft 402 kts 234°
2026-04-22 00:41 41.65301 146.52385 37805 ft 402 kts 234°
2026-04-22 00:41 41.61268 146.47262 37837 ft 399 kts 234°
2026-04-22 00:42 41.57259 146.42170 37843 ft 398 kts 234°
2026-04-22 00:42 41.53254 146.37093 37828 ft 398 kts 234°
2026-04-22 00:43 41.49213 146.31982 37818 ft 397 kts 234°
2026-04-22 00:43 41.45239 146.26969 37846 ft 394 kts 234°
2026-04-22 00:44 41.41240 146.21925 37849 ft 394 kts 234°
2026-04-22 00:44 41.37274 146.16932 37855 ft 394 kts 234°
2026-04-22 00:45 41.33289 146.11929 37844 ft 392 kts 235°
2026-04-22 00:45 41.29317 146.06980 37853 ft 391 kts 234°
2026-04-22 00:46 41.25352 146.02049 37860 ft 391 kts 234°
2026-04-22 00:46 41.21392 145.97112 37855 ft 390 kts 235°
2026-04-22 00:47 41.17414 145.92156 37845 ft 391 kts 235°
2026-04-22 00:47 41.13473 145.87248 37860 ft 391 kts 235°
2026-04-22 00:48 41.09509 145.82320 37855 ft 391 kts 235°
2026-04-22 00:48 41.05533 145.77388 37861 ft 391 kts 235°
2026-04-22 00:49 41.01575 145.72487 37862 ft 391 kts 236°
2026-04-22 00:49 40.97607 145.67582 37868 ft 390 kts 236°
2026-04-22 00:50 40.93620 145.62661 37867 ft 390 kts 236°
2026-04-22 00:50 40.89664 145.57785 37870 ft 390 kts 236°
2026-04-22 00:51 40.85671 145.52873 37868 ft 391 kts 236°
2026-04-22 00:51 40.81685 145.47976 37863 ft 393 kts 235°
2026-04-22 00:52 40.77687 145.43077 37876 ft 394 kts 235°
2026-04-22 00:52 40.73673 145.38168 37872 ft 394 kts 235°
2026-04-22 00:53 40.69652 145.33270 37875 ft 394 kts 235°
2026-04-22 00:53 40.65602 145.28371 37875 ft 394 kts 235°
2026-04-22 00:54 40.61573 145.23485 37882 ft 394 kts 235°
2026-04-22 00:54 40.57544 145.18594 37863 ft 394 kts 235°
2026-04-22 00:55 40.53539 145.13738 37878 ft 392 kts 235°
2026-04-22 00:55 40.47520 145.06451 37883 ft 393 kts 234°
2026-04-22 00:56 40.43483 145.01573 37882 ft 393 kts 234°
2026-04-22 00:56 40.39451 144.96716 37879 ft 392 kts 234°
2026-04-22 00:57 40.35447 144.91889 37890 ft 392 kts 235°
2026-04-22 00:57 40.31442 144.87058 37889 ft 392 kts 235°
2026-04-22 00:58 40.27440 144.82237 37891 ft 392 kts 235°
2026-04-22 00:58 40.23422 144.77406 37891 ft 391 kts 235°
2026-04-22 00:59 40.19439 144.72622 37896 ft 391 kts 235°
2026-04-22 00:59 40.15433 144.67819 37887 ft 392 kts 234°
2026-04-22 01:00 40.11411 144.63005 37869 ft 392 kts 234°
2026-04-22 01:00 40.07381 144.58190 37905 ft 392 kts 234°
2026-04-22 01:01 40.03336 144.53364 37906 ft 392 kts 234°
2026-04-22 01:01 39.99335 144.48600 37906 ft 392 kts 234°
2026-04-22 01:02 39.95296 144.43799 37909 ft 392 kts 234°
2026-04-22 01:02 39.91264 144.39013 37916 ft 392 kts 234°
2026-04-22 01:03 39.87226 144.34229 37916 ft 392 kts 234°
2026-04-22 01:03 39.83177 144.29441 37903 ft 392 kts 234°
2026-04-22 01:04 39.79128 144.24677 37923 ft 393 kts 233°
2026-04-22 01:04 39.75081 144.19939 37926 ft 393 kts 233°
2026-04-22 01:05 39.71019 144.15173 37925 ft 393 kts 233°
2026-04-22 01:05 39.66985 144.10436 37904 ft 393 kts 233°
2026-04-22 01:06 39.62938 144.05689 37938 ft 393 kts 233°
2026-04-22 01:06 39.58889 144.00947 37939 ft 393 kts 233°
2026-04-22 01:07 39.54818 143.96187 37937 ft 393 kts 233°
2026-04-22 01:07 39.50780 143.91476 37905 ft 390 kts 233°
2026-04-22 01:08 39.46750 143.86782 37941 ft 389 kts 233°
2026-04-22 01:08 39.42717 143.82088 37950 ft 388 kts 233°
2026-04-22 01:09 39.38727 143.77452 37949 ft 388 kts 233°
2026-04-22 01:09 39.34712 143.72799 37948 ft 385 kts 233°
2026-04-22 01:10 39.30722 143.68178 37955 ft 384 kts 233°
2026-04-22 01:10 39.26744 143.63577 37955 ft 384 kts 233°
2026-04-22 01:11 39.22767 143.58986 37971 ft 384 kts 233°
2026-04-22 01:11 39.18803 143.54422 37955 ft 384 kts 233°
2026-04-22 01:12 39.14803 143.49860 37956 ft 382 kts 232°
2026-04-22 01:12 39.10833 143.45319 37960 ft 381 kts 232°
2026-04-22 01:13 39.06895 143.40809 37961 ft 378 kts 233°
2026-04-22 01:13 39.02960 143.36304 37965 ft 378 kts 233°
2026-04-22 01:14 38.99040 143.31819 37966 ft 377 kts 233°
2026-04-22 01:14 38.95108 143.27330 37969 ft 377 kts 233°
2026-04-22 01:15 38.91206 143.22883 37976 ft 377 kts 233°
2026-04-22 01:15 38.87279 143.18414 37976 ft 377 kts 233°
2026-04-22 01:16 38.83452 143.13848 37977 ft 373 kts 236°
2026-04-22 01:16 38.79832 143.09133 37948 ft 372 kts 237°
2026-04-22 01:17 38.76212 143.04368 37988 ft 373 kts 237°
2026-04-22 01:17 38.72598 142.99628 37989 ft 373 kts 236°
2026-04-22 01:18 38.68948 142.94861 37986 ft 373 kts 236°
2026-04-22 01:18 38.65327 142.90138 37976 ft 375 kts 236°
2026-04-22 01:19 38.61667 142.85371 37987 ft 376 kts 236°
2026-04-22 01:19 38.58600 142.81387 37988 ft 376 kts 236°
2026-04-22 01:20 38.54935 142.76632 37986 ft 376 kts 236°
2026-04-22 01:20 38.51256 142.71863 37967 ft 377 kts 236°
2026-04-22 01:21 38.47562 142.67082 37980 ft 378 kts 236°
2026-04-22 01:21 38.43859 142.62300 37999 ft 378 kts 236°
2026-04-22 01:22 38.40182 142.57558 37993 ft 378 kts 236°
2026-04-22 01:22 38.36471 142.52779 37993 ft 378 kts 236°
2026-04-22 01:23 38.32779 142.48033 38001 ft 377 kts 236°
2026-04-22 01:23 38.29114 142.43300 37997 ft 376 kts 236°
2026-04-22 01:24 38.25433 142.38515 37983 ft 376 kts 236°
2026-04-22 01:24 38.21786 142.33768 37993 ft 376 kts 236°
2026-04-22 01:25 38.18114 142.28990 37982 ft 376 kts 236°
2026-04-22 01:25 38.14474 142.24264 37997 ft 373 kts 236°
2026-04-22 01:26 38.10847 142.19558 37988 ft 374 kts 235°
2026-04-22 01:26 38.07211 142.14848 37997 ft 375 kts 235°
2026-04-22 01:27 38.03563 142.10129 38000 ft 375 kts 235°
2026-04-22 01:27 37.99884 142.05382 38000 ft 375 kts 235°
2026-04-22 01:28 37.96238 142.00681 38000 ft 376 kts 235°
2026-04-22 01:28 37.92588 141.95972 38003 ft 376 kts 235°
2026-04-22 01:29 37.88917 141.91234 38014 ft 376 kts 235°
2026-04-22 01:29 37.85244 141.86501 38014 ft 376 kts 235°
2026-04-22 01:30 37.81588 141.81797 38017 ft 376 kts 235°
2026-04-22 01:30 37.77898 141.77057 38015 ft 376 kts 236°
2026-04-22 01:31 37.74249 141.72373 38015 ft 376 kts 235°
2026-04-22 01:31 37.70563 141.67650 38023 ft 377 kts 235°
2026-04-22 01:32 37.66876 141.62933 38021 ft 377 kts 235°
2026-04-22 01:32 37.63218 141.58262 38020 ft 377 kts 235°
2026-04-22 01:33 37.59523 141.53549 38026 ft 377 kts 235°
2026-04-22 01:33 37.55838 141.48857 38027 ft 377 kts 235°
2026-04-22 01:34 37.52145 141.44161 38026 ft 377 kts 235°
2026-04-22 01:34 37.48449 141.39468 38029 ft 377 kts 235°
2026-04-22 01:35 37.44754 141.34784 38032 ft 377 kts 235°
2026-04-22 01:35 37.41059 141.30122 38023 ft 377 kts 234°
2026-04-22 01:36 37.37335 141.25448 38025 ft 378 kts 234°
2026-04-22 01:36 37.33644 141.20805 38031 ft 377 kts 234°
2026-04-22 01:37 37.29934 141.16133 38035 ft 377 kts 234°
2026-04-22 01:37 37.26215 141.11455 38037 ft 377 kts 234°
2026-04-22 01:38 37.22505 141.06789 38037 ft 379 kts 234°
2026-04-22 01:38 37.18779 141.02116 38045 ft 379 kts 234°
2026-04-22 01:39 37.15046 140.97441 38046 ft 379 kts 234°
2026-04-22 01:39 37.11457 140.92645 38047 ft 374 kts 238°
2026-04-22 01:40 37.08195 140.87580 38012 ft 373 kts 239°
2026-04-22 01:40 37.04984 140.82489 38044 ft 375 kts 239°
2026-04-22 01:41 37.01744 140.77386 38035 ft 375 kts 239°
2026-04-22 01:41 36.98488 140.72278 38037 ft 375 kts 239°
2026-04-22 01:42 36.95222 140.67174 38049 ft 375 kts 239°
2026-04-22 01:42 36.91954 140.62071 38044 ft 375 kts 239°
2026-04-22 01:43 36.88692 140.56986 38047 ft 375 kts 239°
2026-04-22 01:43 36.85427 140.51903 38047 ft 375 kts 239°
2026-04-22 01:44 36.82168 140.46838 38046 ft 375 kts 239°
2026-04-22 01:44 36.78891 140.41754 38021 ft 376 kts 239°
2026-04-22 01:45 36.75627 140.36696 38044 ft 377 kts 239°
2026-04-22 01:45 36.72460 140.31514 38053 ft 374 kts 242°
2026-04-22 01:46 36.69592 140.26115 38047 ft 372 kts 244°
2026-04-22 01:46 36.66777 140.20697 38052 ft 372 kts 244°
2026-04-22 01:47 36.63955 140.15288 38043 ft 373 kts 244°
2026-04-22 01:47 36.61119 140.09875 38050 ft 373 kts 244°
2026-04-22 01:48 36.58299 140.04511 38050 ft 373 kts 244°
2026-04-22 01:48 36.55445 139.99124 38051 ft 373 kts 243°
2026-04-22 01:49 36.52588 139.93740 38047 ft 373 kts 244°
2026-04-22 01:49 36.49727 139.88348 38050 ft 373 kts 244°
2026-04-22 01:50 36.46741 139.83028 38058 ft 375 kts 242°
2026-04-22 01:50 36.43676 139.77808 38061 ft 376 kts 241°
2026-04-22 01:51 36.40590 139.72567 38045 ft 377 kts 241°
2026-04-22 01:51 36.37501 139.67288 38065 ft 377 kts 242°
2026-04-22 01:52 36.34425 139.61997 38063 ft 377 kts 242°
2026-04-22 01:52 36.31371 139.56742 38073 ft 377 kts 242°
2026-04-22 01:53 36.28301 139.51467 38078 ft 377 kts 242°
2026-04-22 01:53 36.25220 139.46182 38081 ft 376 kts 242°
2026-04-22 01:54 36.22147 139.40920 38086 ft 376 kts 242°
2026-04-22 01:54 36.19076 139.35667 38086 ft 376 kts 242°
2026-04-22 01:55 36.16103 139.30418 38086 ft 372 kts 246°
2026-04-22 01:55 36.13791 139.24731 38086 ft 367 kts 251°
2026-04-22 01:56 36.11704 139.18988 38088 ft 367 kts 251°
2026-04-22 01:56 36.09607 139.13245 38090 ft 367 kts 251°
2026-04-22 01:57 36.07479 139.07481 38067 ft 367 kts 251°
2026-04-22 01:57 36.05354 139.01754 38075 ft 367 kts 251°
2026-04-22 01:58 36.03209 138.95992 38073 ft 368 kts 251°
2026-04-22 01:58 36.01078 138.90281 38066 ft 368 kts 251°
2026-04-22 01:59 35.98924 138.84565 38073 ft 370 kts 250°
2026-04-22 01:59 35.96740 138.78776 38089 ft 371 kts 250°
2026-04-22 02:00 35.94567 138.73008 38069 ft 371 kts 250°
2026-04-22 02:00 35.92393 138.67252 38071 ft 371 kts 250°
2026-04-22 02:01 35.90203 138.61459 38064 ft 370 kts 250°
2026-04-22 02:01 35.88023 138.55736 38064 ft 373 kts 250°
2026-04-22 02:02 35.85800 138.49914 38069 ft 374 kts 250°
2026-04-22 02:02 35.83592 138.44134 38073 ft 374 kts 250°
2026-04-22 02:03 35.81371 138.38324 38069 ft 376 kts 250°
2026-04-22 02:03 35.79150 138.32528 38075 ft 377 kts 250°
2026-04-22 02:04 35.76898 138.26691 38319 ft 377 kts 251°
2026-04-22 02:04 35.75769 138.23775 38415 ft 376 kts 251°
2026-04-22 02:04 35.74650 138.20862 38569 ft 375 kts 250°
2026-04-22 02:05 35.73534 138.17964 38710 ft 374 kts 250°
2026-04-22 02:05 35.72433 138.15108 38816 ft 373 kts 250°
2026-04-22 02:05 35.71321 138.12221 38941 ft 373 kts 250°
2026-04-22 02:05 35.70210 138.09339 39054 ft 372 kts 250°
2026-04-22 02:06 35.69101 138.06464 39170 ft 372 kts 250°
2026-04-22 02:06 35.67991 138.03589 39296 ft 373 kts 250°
2026-04-22 02:06 35.66889 138.00705 39391 ft 372 kts 250°
2026-04-22 02:06 35.65819 137.97805 39514 ft 372 kts 250°
2026-04-22 02:07 35.64763 137.94888 39635 ft 373 kts 251°
2026-04-22 02:07 35.63019 137.90034 39834 ft 374 kts 251°
2026-04-22 02:07 35.61970 137.87114 39959 ft 373 kts 250°
2026-04-22 02:08 35.60921 137.84197 40055 ft 373 kts 250°
2026-04-22 02:08 35.58795 137.78373 40072 ft 373 kts 250°
2026-04-22 02:09 35.56631 137.72605 40091 ft 374 kts 250°
2026-04-22 02:09 35.54445 137.66820 40070 ft 374 kts 250°
2026-04-22 02:10 35.52257 137.61036 40087 ft 373 kts 250°
2026-04-22 02:10 35.50064 137.55243 40108 ft 374 kts 250°
2026-04-22 02:11 35.47777 137.49527 40081 ft 375 kts 245°
2026-04-22 02:11 35.44231 137.44687 40083 ft 396 kts 224°
2026-04-22 02:12 35.39406 137.41268 40082 ft 407 kts 217°
2026-04-22 02:12 35.34359 137.38106 40059 ft 407 kts 217°
2026-04-22 02:13 35.29355 137.34861 40069 ft 405 kts 218°
2026-04-22 02:13 35.24396 137.31567 40069 ft 405 kts 218°
2026-04-22 02:14 35.19482 137.28281 40035 ft 405 kts 218°
2026-04-22 02:14 35.14529 137.24973 40063 ft 405 kts 218°
2026-04-22 02:15 35.09574 137.21677 40068 ft 405 kts 218°
2026-04-22 02:15 35.04621 137.18385 40066 ft 405 kts 218°
2026-04-22 02:16 34.99672 137.15097 40066 ft 405 kts 218°
2026-04-22 02:16 34.94720 137.11811 40067 ft 405 kts 218°
2026-04-22 02:17 34.89766 137.08528 40062 ft 405 kts 218°
2026-04-22 02:17 34.84814 137.05251 40069 ft 405 kts 218°
2026-04-22 02:18 34.79895 137.02000 40069 ft 404 kts 218°
2026-04-22 02:18 34.74950 136.98736 40069 ft 404 kts 218°
2026-04-22 02:19 34.70069 136.95383 40061 ft 397 kts 224°
2026-04-22 02:19 34.68007 136.93213 40068 ft 386 kts 234°
2026-04-22 02:19 34.66271 136.90756 40071 ft 382 kts 238°
2026-04-22 02:20 34.63058 136.85606 40067 ft 382 kts 239°
2026-04-22 02:20 34.59858 136.80475 40071 ft 383 kts 238°
2026-04-22 02:21 34.56592 136.75351 40067 ft 384 kts 238°
2026-04-22 02:21 34.53304 136.70246 40067 ft 384 kts 238°
2026-04-22 02:22 34.50007 136.65145 40067 ft 384 kts 238°
2026-04-22 02:22 34.46709 136.60051 40069 ft 384 kts 238°
2026-04-22 02:23 34.43429 136.54990 40064 ft 384 kts 238°
2026-04-22 02:23 34.40123 136.49898 40064 ft 384 kts 238°
2026-04-22 02:24 34.36824 136.44824 40065 ft 383 kts 238°
2026-04-22 02:24 34.33518 136.39747 40057 ft 383 kts 238°
2026-04-22 02:25 34.30237 136.34712 40057 ft 384 kts 238°
2026-04-22 02:25 34.26931 136.29648 40065 ft 384 kts 238°
2026-04-22 02:26 34.23619 136.24583 40066 ft 384 kts 238°
2026-04-22 02:26 34.20302 136.19520 40064 ft 384 kts 238°
2026-04-22 02:27 34.16996 136.14482 40054 ft 385 kts 238°
2026-04-22 02:27 34.13645 136.09414 40075 ft 386 kts 237°
2026-04-22 02:28 34.10302 136.04354 40084 ft 386 kts 238°
2026-04-22 02:28 34.06960 135.99281 40061 ft 385 kts 238°
2026-04-22 02:29 34.03623 135.94223 40058 ft 385 kts 238°
2026-04-22 02:29 34.00300 135.89191 40066 ft 385 kts 238°
2026-04-22 02:30 33.96957 135.84138 40052 ft 385 kts 237°
2026-04-22 02:30 33.93615 135.79090 40053 ft 385 kts 237°
2026-04-22 02:31 33.90271 135.74048 40054 ft 386 kts 238°
2026-04-22 02:31 33.86918 135.68997 40052 ft 386 kts 237°
2026-04-22 02:32 33.83561 135.63950 40053 ft 386 kts 237°
2026-04-22 02:32 33.80204 135.58909 40052 ft 386 kts 237°
2026-04-22 02:33 33.76841 135.53866 40053 ft 386 kts 237°
2026-04-22 02:33 33.74044 135.49676 40048 ft 387 kts 237°
2026-04-22 02:34 33.70125 135.43816 40047 ft 387 kts 237°
2026-04-22 02:34 33.67318 135.39625 40046 ft 387 kts 237°
2026-04-22 02:35 33.63359 135.33741 40048 ft 388 kts 237°
2026-04-22 02:35 33.59959 135.28711 40049 ft 388 kts 237°
2026-04-22 02:36 33.56588 135.23710 40053 ft 388 kts 237°
2026-04-22 02:36 33.53200 135.18683 40052 ft 388 kts 237°
2026-04-22 02:37 33.49808 135.13653 40055 ft 388 kts 237°
2026-04-22 02:37 33.46412 135.08624 40046 ft 388 kts 237°
2026-04-22 02:38 33.43010 135.03592 40059 ft 389 kts 237°
2026-04-22 02:38 33.39617 134.98586 40058 ft 389 kts 237°
2026-04-22 02:39 33.36204 134.93560 40062 ft 389 kts 237°
2026-04-22 02:39 33.32788 134.88525 40062 ft 389 kts 237°
2026-04-22 02:40 33.29382 134.83506 40049 ft 389 kts 237°
2026-04-22 02:40 33.25983 134.78502 40059 ft 390 kts 237°
2026-04-22 02:41 33.22559 134.73470 40061 ft 390 kts 237°
2026-04-22 02:41 33.19134 134.68443 40064 ft 390 kts 237°
2026-04-22 02:42 33.15978 134.63214 40063 ft 383 kts 249°
2026-04-22 02:42 33.14231 134.57273 40066 ft 378 kts 257°
2026-04-22 02:43 33.12850 134.51231 40064 ft 377 kts 257°
2026-04-22 02:43 33.11435 134.45193 40061 ft 378 kts 257°
2026-04-22 02:44 33.09977 134.39163 40060 ft 379 kts 257°
2026-04-22 02:44 33.08509 134.33165 40052 ft 379 kts 257°
2026-04-22 02:45 33.07027 134.27140 40055 ft 379 kts 257°
2026-04-22 02:45 33.05547 134.21110 40070 ft 378 kts 257°
2026-04-22 02:46 33.04088 134.15113 40038 ft 376 kts 257°
2026-04-22 02:46 33.02631 134.09102 40046 ft 378 kts 257°
2026-04-22 02:47 33.01170 134.03083 40056 ft 378 kts 257°
2026-04-22 02:47 32.99713 133.97089 40057 ft 376 kts 257°
2026-04-22 02:48 32.98256 133.91116 40054 ft 376 kts 257°
2026-04-22 02:48 32.96805 133.85178 40040 ft 377 kts 257°
2026-04-22 02:49 32.95337 133.79179 40056 ft 377 kts 257°
2026-04-22 02:49 32.93865 133.73185 40051 ft 377 kts 257°
2026-04-22 02:50 32.92391 133.67191 40057 ft 377 kts 257°
2026-04-22 02:50 32.90915 133.61203 40059 ft 377 kts 257°
2026-04-22 02:51 32.89438 133.55252 40047 ft 379 kts 257°
2026-04-22 02:51 32.87936 133.49224 40053 ft 380 kts 257°
2026-04-22 02:52 32.86438 133.43188 40047 ft 380 kts 257°
2026-04-22 02:52 32.84941 133.37148 40052 ft 381 kts 256°
2026-04-22 02:53 32.83692 133.32119 40057 ft 381 kts 256°
2026-04-22 02:53 32.82186 133.26065 40046 ft 382 kts 257°
2026-04-22 02:54 32.80684 133.20038 40054 ft 383 kts 257°
2026-04-22 02:54 32.79155 133.13914 40051 ft 384 kts 257°
2026-04-22 02:55 32.77640 133.07867 40054 ft 384 kts 257°
2026-04-22 02:55 32.75845 133.01854 40060 ft 388 kts 249°
2026-04-22 02:56 32.73294 132.96166 40049 ft 391 kts 246°
2026-04-22 02:56 32.70632 132.90536 40050 ft 391 kts 246°
2026-04-22 02:57 32.67999 132.84897 40047 ft 390 kts 246°
2026-04-22 02:57 32.65387 132.79259 40045 ft 390 kts 246°
2026-04-22 02:58 32.62784 132.73631 40045 ft 390 kts 246°
2026-04-22 02:58 32.60159 132.67963 40042 ft 390 kts 246°
2026-04-22 02:59 32.57554 132.62344 40044 ft 390 kts 246°
2026-04-22 02:59 32.54929 132.56697 40013 ft 389 kts 247°
2026-04-22 03:00 32.52326 132.51102 40039 ft 387 kts 247°
2026-04-22 03:00 32.49740 132.45548 40045 ft 387 kts 247°
2026-04-22 03:01 32.47135 132.39964 40057 ft 387 kts 247°
2026-04-22 03:01 32.44532 132.34397 40044 ft 385 kts 247°
2026-04-22 03:02 32.41930 132.28836 40038 ft 386 kts 248°
2026-04-22 03:02 32.39341 132.23313 40039 ft 386 kts 248°
2026-04-22 03:03 32.36731 132.17755 40046 ft 385 kts 247°
2026-04-22 03:03 32.34111 132.12230 40043 ft 384 kts 247°
2026-04-22 03:04 32.31492 132.06701 40044 ft 386 kts 247°
2026-04-22 03:04 32.28871 132.01155 40040 ft 386 kts 247°
2026-04-22 03:05 32.26249 131.95606 40048 ft 385 kts 247°
2026-04-22 03:05 32.23649 131.90111 40030 ft 385 kts 247°
2026-04-22 03:06 32.21032 131.84583 40036 ft 387 kts 247°
2026-04-22 03:06 32.18390 131.79015 40041 ft 388 kts 247°
2026-04-22 03:07 32.15753 131.73467 40043 ft 387 kts 247°
2026-04-22 03:07 32.13116 131.67927 40038 ft 387 kts 246°
2026-04-22 03:08 32.10493 131.62422 40023 ft 388 kts 246°
2026-04-22 03:08 32.07842 131.56867 40030 ft 389 kts 246°
2026-04-22 03:09 32.05189 131.51318 40029 ft 388 kts 246°
2026-04-22 03:09 32.02535 131.45777 40025 ft 387 kts 246°
2026-04-22 03:10 31.99886 131.40251 39999 ft 388 kts 246°
2026-04-22 03:10 31.97226 131.34706 40024 ft 391 kts 246°
2026-04-22 03:11 31.94536 131.29139 40023 ft 390 kts 246°
2026-04-22 03:11 31.91838 131.23584 40036 ft 390 kts 246°
2026-04-22 03:12 31.89155 131.18041 40038 ft 390 kts 246°
2026-04-22 03:12 31.85129 131.09711 40028 ft 392 kts 246°
2026-04-22 03:13 31.82432 131.04142 40014 ft 392 kts 246°
2026-04-22 03:13 31.79730 130.98571 40007 ft 392 kts 246°
2026-04-22 03:14 31.77024 130.92999 39989 ft 392 kts 246°
2026-04-22 03:14 31.74327 130.87449 39998 ft 393 kts 246°
2026-04-22 03:15 31.71610 130.81874 39996 ft 392 kts 246°
2026-04-22 03:15 31.68897 130.76311 39995 ft 392 kts 246°
2026-04-22 03:16 31.66179 130.70747 39974 ft 392 kts 246°
2026-04-22 03:16 31.63452 130.65169 40003 ft 395 kts 246°
2026-04-22 03:17 31.60725 130.59604 40001 ft 396 kts 246°
2026-04-22 03:17 31.57973 130.53997 39996 ft 396 kts 246°
2026-04-22 03:18 31.55221 130.48398 39992 ft 396 kts 246°
2026-04-22 03:18 31.52459 130.42821 39991 ft 395 kts 246°
2026-04-22 03:19 31.49695 130.37250 39985 ft 394 kts 246°
2026-04-22 03:19 31.46945 130.31691 39984 ft 394 kts 246°
2026-04-22 03:20 31.44210 130.26160 39982 ft 394 kts 246°
2026-04-22 03:20 31.41464 130.20613 39975 ft 394 kts 246°
2026-04-22 03:21 31.38711 130.15057 39985 ft 395 kts 246°
2026-04-22 03:21 31.35955 130.09506 39979 ft 394 kts 246°
2026-04-22 03:22 31.33205 130.03982 39980 ft 395 kts 245°
2026-04-22 03:22 31.30036 129.98687 39974 ft 399 kts 239°
2026-04-22 03:23 31.26598 129.93558 39972 ft 401 kts 239°
2026-04-22 03:23 31.23143 129.88418 39975 ft 402 kts 239°
2026-04-22 03:24 31.19706 129.83270 39972 ft 401 kts 239°
2026-04-22 03:24 31.16298 129.78151 39974 ft 401 kts 239°
2026-04-22 03:25 31.12869 129.73003 39967 ft 401 kts 239°
2026-04-22 03:25 31.09438 129.67860 39969 ft 401 kts 239°
2026-04-22 03:26 31.06022 129.62745 39972 ft 401 kts 239°
2026-04-22 03:26 31.02584 129.57605 39977 ft 401 kts 239°
2026-04-22 03:27 30.99148 129.52473 39973 ft 402 kts 239°
2026-04-22 03:27 30.95706 129.47340 39971 ft 402 kts 239°
2026-04-22 03:28 30.92281 129.42239 39962 ft 402 kts 239°
2026-04-22 03:28 30.88827 129.37103 39965 ft 402 kts 239°
2026-04-22 03:29 30.85368 129.31964 39961 ft 404 kts 238°
2026-04-22 03:29 30.81894 129.26811 39957 ft 404 kts 238°
2026-04-22 03:30 30.78426 129.21705 39961 ft 405 kts 238°
2026-04-22 03:30 30.74981 129.16521 39954 ft 404 kts 239°
2026-04-22 03:31 30.71634 129.11395 39955 ft 406 kts 239°
2026-04-22 03:31 30.68349 129.06362 39953 ft 406 kts 239°
2026-04-22 03:32 30.64986 129.01221 39953 ft 406 kts 239°
2026-04-22 03:32 30.61562 128.95995 39949 ft 406 kts 239°
2026-04-22 03:33 30.58139 128.90777 39937 ft 408 kts 239°
2026-04-22 03:33 30.54717 128.85566 39947 ft 408 kts 239°
2026-04-22 03:34 30.51271 128.80330 39944 ft 408 kts 239°
2026-04-22 03:34 30.47819 128.75090 39941 ft 408 kts 239°
2026-04-22 03:35 30.44372 128.69863 39926 ft 408 kts 239°
2026-04-22 03:35 30.40901 128.64607 39944 ft 411 kts 239°
2026-04-22 03:36 30.37453 128.59395 39940 ft 409 kts 239°
2026-04-22 03:36 30.33992 128.54169 39940 ft 409 kts 239°
2026-04-22 03:37 30.30529 128.48946 39941 ft 408 kts 239°
2026-04-22 03:37 30.27061 128.43725 39937 ft 409 kts 239°
2026-04-22 03:38 30.23575 128.38515 39936 ft 409 kts 239°
2026-04-22 03:38 30.20679 128.34181 39936 ft 409 kts 239°
2026-04-22 03:39 30.17199 128.28967 39933 ft 409 kts 239°
2026-04-22 03:39 30.13738 128.23780 39933 ft 409 kts 239°
2026-04-22 03:40 30.10256 128.18568 39938 ft 409 kts 239°
2026-04-22 03:40 30.06769 128.13356 39933 ft 410 kts 239°
2026-04-22 03:41 30.03299 128.08176 39933 ft 410 kts 238°
2026-04-22 03:41 29.99806 128.02969 39922 ft 408 kts 239°
2026-04-22 03:42 29.96333 127.97800 39931 ft 406 kts 239°
2026-04-22 03:42 29.92864 127.92700 39932 ft 406 kts 237°
2026-04-22 03:43 29.89216 127.87709 39927 ft 407 kts 236°
2026-04-22 03:43 29.85533 127.82756 39927 ft 407 kts 236°
2026-04-22 03:44 29.81861 127.77809 39926 ft 405 kts 236°
2026-04-22 03:44 29.78203 127.72873 39930 ft 404 kts 236°
2026-04-22 03:45 29.74578 127.67981 39927 ft 404 kts 236°
2026-04-22 03:45 29.70929 127.63063 39928 ft 404 kts 236°
2026-04-22 03:46 29.67278 127.58149 39929 ft 404 kts 236°
2026-04-22 03:46 29.63625 127.53239 39918 ft 404 kts 236°
2026-04-22 03:47 29.59970 127.48332 39916 ft 404 kts 236°
2026-04-22 03:47 29.56406 127.43359 39921 ft 402 kts 238°
2026-04-22 03:48 29.52932 127.38328 39916 ft 401 kts 238°
2026-04-22 03:48 29.49482 127.33317 39916 ft 402 kts 238°
2026-04-22 03:49 29.46029 127.28317 39915 ft 402 kts 238°
2026-04-22 03:49 29.42550 127.23289 39914 ft 402 kts 238°
2026-04-22 03:50 29.39072 127.18272 39909 ft 400 kts 238°
2026-04-22 03:50 29.35600 127.13267 39909 ft 402 kts 237°
2026-04-22 03:51 29.32115 127.08251 39915 ft 402 kts 237°
2026-04-22 03:51 29.28646 127.03267 39914 ft 402 kts 237°
2026-04-22 03:52 29.27248 127.01259 39910 ft 402 kts 237°
2026-04-22 03:52 29.16471 126.85811 39905 ft 404 kts 237°
2026-04-22 03:53 29.02433 126.65819 39903 ft 408 kts 236°
2026-04-22 03:53 28.87863 126.45762 39898 ft 413 kts 235°
2026-04-22 03:54 28.72956 126.25708 39866 ft 414 kts 235°
2026-04-22 03:54 28.58307 126.05735 39894 ft 412 kts 237°
2026-04-22 03:55 28.43915 125.85441 39890 ft 412 kts 237°
2026-04-22 03:55 28.29494 125.65227 39888 ft 409 kts 237°
2026-04-22 03:56 28.15092 125.45128 39893 ft 410 kts 236°
2026-04-22 03:56 28.00708 125.25207 39894 ft 411 kts 236°
2026-04-22 03:57 27.85751 125.04535 39884 ft 412 kts 237°
2026-04-22 03:57 27.71961 124.85565 39887 ft 412 kts 236°
2026-04-22 03:58 27.57333 124.65561 39883 ft 413 kts 236°
2026-04-22 03:58 27.49516 124.54885 39885 ft 415 kts 236°
2026-04-22 03:59 27.44282 124.47747 39883 ft 415 kts 236°
2026-04-22 03:59 27.29522 124.27678 39882 ft 417 kts 236°
2026-04-22 04:00 27.14667 124.07573 39896 ft 419 kts 236°
2026-04-22 04:00 26.99636 123.87526 39895 ft 418 kts 236°
2026-04-22 04:01 26.84585 123.67587 39883 ft 419 kts 236°
2026-04-22 04:01 26.69626 123.47857 39875 ft 418 kts 236°
2026-04-22 04:02 26.54531 123.28045 39884 ft 419 kts 236°
2026-04-22 04:02 26.39370 123.08267 39881 ft 419 kts 236°
2026-04-22 04:03 26.24302 122.88456 39893 ft 418 kts 236°
2026-04-22 04:03 26.09280 122.68613 39883 ft 418 kts 236°
2026-04-22 04:04 25.94317 122.48964 39883 ft 419 kts 235°
2026-04-22 04:04 25.78854 122.29587 39885 ft 418 kts 235°
2026-04-22 04:05 25.63406 122.10284 39861 ft 419 kts 235°
2026-04-22 04:05 25.48087 121.90842 39874 ft 419 kts 236°
2026-04-22 04:06 25.32744 121.71399 39865 ft 419 kts 236°
2026-04-22 04:06 25.17412 121.52040 39860 ft 422 kts 236°
2026-04-22 04:07 25.06584 121.38025 39875 ft 418 kts 236°
2026-04-22 04:07 25.02809 121.33133 39862 ft 419 kts 236°
2026-04-22 04:08 24.99020 121.28229 39877 ft 420 kts 236°
2026-04-22 04:08 24.95219 121.23316 39868 ft 420 kts 235°
2026-04-22 04:09 24.91449 121.18449 39886 ft 419 kts 235°
2026-04-22 04:09 24.87657 121.13560 39866 ft 420 kts 235°
2026-04-22 04:10 24.83863 121.08673 39873 ft 420 kts 235°
2026-04-22 04:10 24.80075 121.03789 39873 ft 419 kts 235°
2026-04-22 04:11 24.76313 120.98929 39912 ft 419 kts 235°
2026-04-22 04:11 24.72529 120.94039 39885 ft 420 kts 236°
2026-04-22 04:12 24.68724 120.89124 39886 ft 421 kts 236°
2026-04-22 04:12 24.64943 120.84246 39886 ft 421 kts 236°
2026-04-22 04:13 24.61142 120.79349 39880 ft 421 kts 236°
2026-04-22 04:13 24.57220 120.74507 39904 ft 425 kts 233°
2026-04-22 04:14 24.53119 120.69792 39899 ft 426 kts 232°
2026-04-22 04:14 24.49013 120.65110 39917 ft 426 kts 232°
2026-04-22 04:15 24.44936 120.60444 39912 ft 425 kts 232°
2026-04-22 04:15 24.40899 120.55815 39913 ft 426 kts 232°
2026-04-22 04:16 24.34815 120.48844 39911 ft 428 kts 232°
2026-04-22 04:17 24.30694 120.44130 39911 ft 428 kts 232°
2026-04-22 04:17 24.26563 120.39409 39908 ft 428 kts 232°
2026-04-22 04:18 24.22466 120.34732 39904 ft 428 kts 232°
2026-04-22 04:18 24.18335 120.30036 39903 ft 428 kts 232°
2026-04-22 04:19 24.14181 120.25340 39888 ft 429 kts 232°
2026-04-22 04:19 24.10025 120.20641 39889 ft 429 kts 232°
2026-04-22 04:20 24.05868 120.15942 39890 ft 429 kts 232°
2026-04-22 04:20 24.01739 120.11277 39885 ft 429 kts 232°
2026-04-22 04:21 23.97594 120.06592 39889 ft 428 kts 232°
2026-04-22 04:21 23.93449 120.01896 39885 ft 429 kts 232°
2026-04-22 04:22 23.89293 119.97190 39891 ft 430 kts 232°
2026-04-22 04:22 23.85131 119.92482 39885 ft 431 kts 232°
2026-04-22 04:23 23.80992 119.87804 39884 ft 430 kts 231°
2026-04-22 04:23 23.76821 119.83095 39886 ft 430 kts 231°
2026-04-22 04:24 23.72664 119.78407 39878 ft 430 kts 231°
2026-04-22 04:24 23.68522 119.73737 39891 ft 432 kts 231°
2026-04-22 04:25 23.64331 119.69020 39897 ft 432 kts 231°
2026-04-22 04:25 23.60146 119.64314 39896 ft 432 kts 231°
2026-04-22 04:26 23.56379 119.59290 39899 ft 425 kts 241°
2026-04-22 04:26 23.53250 119.53879 39894 ft 423 kts 243°
2026-04-22 04:27 23.50172 119.48393 39893 ft 425 kts 243°
2026-04-22 04:27 23.47046 119.42911 39896 ft 426 kts 242°
2026-04-22 04:28 23.43913 119.37473 39888 ft 426 kts 242°
2026-04-22 04:28 23.41268 119.32897 39886 ft 426 kts 242°
2026-04-22 04:29 23.37597 119.26554 39885 ft 426 kts 242°
2026-04-22 04:29 23.34964 119.22010 39884 ft 425 kts 242°
2026-04-22 04:30 23.31811 119.16570 39887 ft 424 kts 242°
2026-04-22 04:30 23.28655 119.11129 39886 ft 426 kts 242°
2026-04-22 04:31 23.25484 119.05671 39881 ft 427 kts 242°
2026-04-22 04:31 23.22312 119.00218 39901 ft 427 kts 242°
2026-04-22 04:32 23.19134 118.94760 39889 ft 426 kts 242°
2026-04-22 04:32 23.15986 118.89360 39892 ft 425 kts 242°
2026-04-22 04:33 23.12813 118.83930 39889 ft 425 kts 242°
2026-04-22 04:33 23.09633 118.78513 39869 ft 425 kts 242°
2026-04-22 04:34 23.06456 118.73090 39890 ft 428 kts 242°
2026-04-22 04:34 23.03256 118.67626 39887 ft 428 kts 242°
2026-04-22 04:35 23.00059 118.62170 39887 ft 427 kts 242°
2026-04-22 04:35 22.96872 118.56736 39886 ft 427 kts 241°
2026-04-22 04:36 22.93662 118.51306 39889 ft 427 kts 241°
2026-04-22 04:36 22.90460 118.45927 39890 ft 427 kts 241°
2026-04-22 04:37 22.87233 118.40507 39884 ft 429 kts 240°
2026-04-22 04:37 22.83981 118.35048 39890 ft 431 kts 240°
2026-04-22 04:38 22.80748 118.29627 39886 ft 430 kts 240°
2026-04-22 04:38 22.77497 118.24181 39890 ft 430 kts 240°
2026-04-22 04:39 22.74239 118.18728 39891 ft 430 kts 240°
2026-04-22 04:39 22.71056 118.13405 39786 ft 436 kts 239°
2026-04-22 04:40 22.67792 118.07956 39885 ft 431 kts 240°
2026-04-22 04:40 22.64564 118.02570 39890 ft 430 kts 240°
2026-04-22 04:41 22.61350 117.97212 39888 ft 430 kts 240°
2026-04-22 04:41 22.58108 117.91774 39889 ft 430 kts 240°
2026-04-22 04:42 22.54899 117.86351 39891 ft 430 kts 241°
2026-04-22 04:42 22.51676 117.80896 39889 ft 430 kts 241°
2026-04-22 04:43 22.48454 117.75448 39889 ft 430 kts 241°
2026-04-22 04:43 22.45226 117.69996 39883 ft 430 kts 240°
2026-04-22 04:44 22.41999 117.64550 39892 ft 433 kts 240°
2026-04-22 04:44 22.38745 117.59068 39895 ft 434 kts 240°
2026-04-22 04:45 22.35489 117.53583 39891 ft 433 kts 241°
2026-04-22 04:45 22.33156 117.47964 39891 ft 426 kts 259°
2026-04-22 04:46 22.32715 117.41613 39893 ft 424 kts 271°
2026-04-22 04:46 22.32788 117.35403 39894 ft 424 kts 271°
2026-04-22 04:47 22.32370 117.05432 39895 ft 424 kts 270°
2026-04-22 04:47 22.31291 116.54276 39898 ft 427 kts 270°
2026-04-22 04:48 22.30772 116.32968 39895 ft 427 kts 270°
2026-04-22 04:48 22.30621 116.26580 39443 ft 427 kts 270°
2026-04-22 04:48 22.30542 116.23366 39091 ft 428 kts 270°
2026-04-22 04:49 22.30463 116.20148 38747 ft 429 kts 271°
2026-04-22 04:49 22.30384 116.16917 38379 ft 431 kts 271°
2026-04-22 04:49 22.30303 116.13670 37977 ft 432 kts 271°
2026-04-22 04:49 22.30222 116.10422 37581 ft 434 kts 271°
2026-04-22 04:50 22.30139 116.07155 37193 ft 435 kts 271°
2026-04-22 04:50 22.30056 116.03884 36813 ft 437 kts 270°
2026-04-22 04:50 22.29972 116.00605 36432 ft 438 kts 270°
2026-04-22 04:50 22.29886 115.97309 36077 ft 439 kts 270°
2026-04-22 04:51 22.29799 115.94010 35933 ft 440 kts 271°
2026-04-22 04:51 22.29625 115.87403 35596 ft 450 kts 270°
2026-04-22 04:51 22.29535 115.84004 35135 ft 454 kts 270°
2026-04-22 04:52 22.29440 115.80584 34673 ft 457 kts 270°
2026-04-22 04:52 22.29342 115.77145 34180 ft 460 kts 270°
2026-04-22 04:52 22.29245 115.73679 33577 ft 462 kts 270°
2026-04-22 04:52 22.29150 115.70198 32939 ft 464 kts 270°
2026-04-22 04:53 22.29054 115.66709 32326 ft 465 kts 270°
2026-04-22 04:53 22.28958 115.63201 31697 ft 466 kts 270°
2026-04-22 04:53 22.28863 115.59705 30989 ft 466 kts 269°
2026-04-22 04:53 22.28767 115.56205 30301 ft 467 kts 269°
2026-04-22 04:54 22.28671 115.52708 29564 ft 464 kts 269°
2026-04-22 04:54 22.28575 115.49238 28779 ft 460 kts 269°
2026-04-22 04:54 22.28478 115.45807 28014 ft 454 kts 269°
2026-04-22 04:54 22.28383 115.42419 27270 ft 449 kts 269°
2026-04-22 04:55 22.28290 115.39109 26552 ft 444 kts 269°
2026-04-22 04:55 22.28195 115.35792 25848 ft 439 kts 269°
2026-04-22 04:55 22.28099 115.32510 25151 ft 435 kts 269°
2026-04-22 04:55 22.27999 115.29258 24478 ft 432 kts 269°
2026-04-22 04:56 22.27900 115.26021 23820 ft 428 kts 269°
2026-04-22 04:56 22.27802 115.22822 23115 ft 425 kts 269°
2026-04-22 04:56 22.27705 115.19650 22340 ft 420 kts 269°
2026-04-22 04:56 22.27609 115.16515 21603 ft 415 kts 268°
2026-04-22 04:57 22.27513 115.13421 20878 ft 411 kts 268°
2026-04-22 04:57 22.27418 115.10347 20507 ft 408 kts 268°
2026-04-22 04:57 22.27324 115.07299 20154 ft 405 kts 268°
2026-04-22 04:57 22.27229 115.04265 19805 ft 403 kts 268°
2026-04-22 04:58 22.27134 115.01248 19467 ft 401 kts 268°
2026-04-22 04:58 22.27039 114.98246 19125 ft 399 kts 268°
2026-04-22 04:58 22.26945 114.95301 18793 ft 396 kts 268°
2026-04-22 04:58 22.26983 114.92336 18462 ft 394 kts 274°
2026-04-22 04:59 22.27301 114.89396 18125 ft 393 kts 278°
2026-04-22 04:59 22.27746 114.86497 17740 ft 391 kts 279°
2026-04-22 04:59 22.28232 114.83613 17353 ft 388 kts 279°
2026-04-22 04:59 22.28719 114.80758 16981 ft 386 kts 279°
2026-04-22 05:00 22.29197 114.77915 16612 ft 383 kts 279°
2026-04-22 05:00 22.29663 114.75092 16247 ft 381 kts 279°
2026-04-22 05:00 22.30120 114.72285 15877 ft 379 kts 279°
2026-04-22 05:00 22.30572 114.69486 15331 ft 376 kts 279°
2026-04-22 05:01 22.31015 114.66729 14630 ft 372 kts 279°
2026-04-22 05:01 22.31453 114.63992 13953 ft 368 kts 279°
2026-04-22 05:01 22.31887 114.61276 13226 ft 364 kts 278°
2026-04-22 05:01 22.32313 114.58607 12473 ft 353 kts 278°
2026-04-22 05:02 22.32721 114.56056 11746 ft 339 kts 278°
2026-04-22 05:02 22.33109 114.53622 11036 ft 328 kts 278°
2026-04-22 05:02 22.33491 114.51225 10327 ft 319 kts 278°
2026-04-22 05:02 22.33862 114.48893 9812 ft 308 kts 278°
2026-04-22 05:03 22.34217 114.46664 9441 ft 292 kts 278°
2026-04-22 05:03 22.34554 114.44546 9072 ft 280 kts 278°
2026-04-22 05:03 22.34878 114.42508 8688 ft 270 kts 277°
2026-04-22 05:03 22.35191 114.40533 8319 ft 265 kts 277°
2026-04-22 05:04 22.35499 114.38585 7959 ft 262 kts 277°
2026-04-22 05:04 22.35805 114.36642 7609 ft 261 kts 277°
2026-04-22 05:04 22.36109 114.34714 7245 ft 259 kts 276°
2026-04-22 05:04 22.36412 114.32795 6896 ft 257 kts 276°
2026-04-22 05:05 22.36711 114.30895 6541 ft 256 kts 276°
2026-04-22 05:05 22.37003 114.29033 6197 ft 253 kts 276°
2026-04-22 05:05 22.37296 114.27176 5828 ft 247 kts 277°
2026-04-22 05:05 22.37584 114.25349 5464 ft 243 kts 277°
2026-04-22 05:06 22.37867 114.23566 5089 ft 239 kts 274°
2026-04-22 05:06 22.38142 114.21806 4940 ft 235 kts 275°
2026-04-22 05:06 22.38417 114.20047 4904 ft 237 kts 275°
2026-04-22 05:06 22.38476 114.18311 4706 ft 233 kts 259°
2026-04-22 05:07 22.38112 114.16680 4381 ft 213 kts 252°
2026-04-22 05:07 22.37709 114.15199 3978 ft 197 kts 251°
2026-04-22 05:07 22.37313 114.13828 3636 ft 185 kts 249°
2026-04-22 05:07 22.36899 114.12559 3366 ft 166 kts 247°
2026-04-22 05:08 22.36527 114.11442 3297 ft 153 kts 246°
2026-04-22 05:08 22.36165 114.10378 3144 ft 150 kts 246°
2026-04-22 05:08 22.35831 114.09310 2925 ft 150 kts 248°
2026-04-22 05:08 22.35500 114.08226 2814 ft 152 kts 249°
2026-04-22 05:09 22.35166 114.07161 2591 ft 151 kts 248°
2026-04-22 05:09 22.34825 114.06091 2386 ft 152 kts 248°
2026-04-22 05:09 22.34482 114.05009 2224 ft 152 kts 247°
2026-04-22 05:09 22.34141 114.03933 2012 ft 151 kts 246°
2026-04-22 05:10 22.33789 114.02865 1793 ft 150 kts 247°
2026-04-22 05:10 22.33444 114.01809 1618 ft 148 kts 249°
2026-04-22 05:10 22.33118 114.00747 1407 ft 151 kts 248°
2026-04-22 05:10 22.32778 113.99667 1227 ft 150 kts 246°
2026-04-22 05:11 22.32454 113.98652 997 ft 138 kts 243°
2026-04-22 05:11 22.32129 113.97670 870 ft 139 kts 244°
2026-04-22 05:11 22.31825 113.96695 703 ft 137 kts 246°
2026-04-22 05:11 22.31550 113.95713 534 ft 139 kts 243°
2026-04-22 05:12 22.31230 113.94738 366 ft 131 kts 242°
2026-04-22 05:12 22.30895 113.93754 207 ft 144 kts 244°
2026-04-22 05:12 22.30589 113.92804 60 ft 119 kts 248°
2026-04-22 05:12 22.30366 113.92123 40 ft 70 kts 251°
2026-04-22 05:13 22.30241 113.91723 40 ft 47 kts 250°
2026-04-22 05:13 22.30158 113.91566 40 ft 11 kts 200°
2026-04-22 05:13 22.30057 113.91587 39 ft 6 kts 152°
2026-04-22 05:13 22.30031 113.91635 39 ft 11 kts 94°
2026-04-22 05:14 22.30048 113.91715 39 ft 13 kts 68°
2026-04-22 05:14 22.30083 113.91810 39 ft 15 kts 71°
2026-04-22 05:14 22.30126 113.91949 39 ft 21 kts 71°
2026-04-22 05:14 22.30138 113.91999 39 ft 7 kts 88°
2026-04-22 05:15 22.30102 113.92038 39 ft 11 kts 159°
2026-04-22 05:15 22.30020 113.92072 38 ft 13 kts 159°
2026-04-22 05:15 22.29971 113.92123 39 ft 7 kts 103°
2026-04-22 05:15 22.29981 113.92166 37 ft 7 kts 70°
2026-04-22 05:16 22.30002 113.92227 39 ft 10 kts 70°
2026-04-22 05:16 22.30022 113.92284 39 ft 5 kts 61°
2026-04-22 05:16 22.30049 113.92300 39 ft 4 kts 10°
2026-04-22 05:16 22.30070 113.92294 39 ft 3 kts 342°
2026-04-22 05:17 22.30107 113.92281 39 ft 6 kts 340°
2026-04-22 05:17 22.30125 113.92274 39 ft 3 kts 341°
2026-04-22 05:17 22.30132 113.92272 39 ft 0 kts 341°